GFSNGP_con_lsi_072.txt.gz
Lid_Strength_Index
10 10 10 10 10 10 11 10 13 11 11 8 7 6 6 5 5 5 5 4 3 3 3 3 2 2 2 2 2 1 2 2 2 1 1 1 1 1 1 0 0 0 0 0
12 11 10 11 10 9 9 9 10 10 10 6 5 5 6 5 5 6 5 4 3 3 3 3 2 2 2 2 2 1 2 2 1 1 1 1 1 1 1 1 1 1 1 0
14 11 11 14 11 10 9 9 9 11 8 6 6 6 6 5 5 5 4 4 4 3 3 2 2 2 2 2 1 2 2 2 2 1 1 1 1 1 1 1 1 1 1 1
14 13 18 10 8 8 9 8 7 8 7 6 6 6 5 4 5 5 4 4 4 3 3 2 2 2 2 1 2 2 2 2 2 2 2 1 1 1 1 1 1 1 1 1
15 14 11 10 8 8 9 9 7 7 7 6 5 5 5 4 4 4 4 3 3 3 4 3 3 2 2 2 2 2 2 2 2 2 2 2 2 2 1 2 2 2 3 4
13 16 17 10 8 6 7 11 6 6 6 6 6 9 7 4 4 3 3 3 3 2 2 3 3 3 2 2 2 2 2 2 1 1 2 2 2 2 4 4 6 9 10 10
14 15 12 7 6 6 13 12 6 5 5 6 7 6 4 3 3 3 3 3 3 3 3 3 2 2 3 2 3 2 1 1 1 1 2 2 5 5 7 10 11 12 13 13
13 15 17 6 7 10 8 5 5 5 5 5 5 4 4 4 4 3 3 3 3 3 4 3 2 2 3 3 2 2 2 3 3 4 6 6 7 9 10 12 14 15 15 16
10 11 6 6 6 4 5 6 5 5 5 5 5 5 4 4 4 4 3 3 3 4 7 7 6 3 3 5 4 5 6 7 8 9 9 9 11 12 13 13 14 15 16 17
9 7 6 5 4 5 4 5 4 4 4 4 5 5 4 4 4 4 5 6 6 6 9 11 11 9 8 8 8 8 10 11 11 12 13 12 12 13 13 14 15 16 17 17
8 6 6 5 5 5 5 4 4 5 5 6 7 6 6 5 7 8 8 9 9 10 11 12 13 13 12 11 10 12 13 13 14 15 15 16 16 14 14 14 14 15 16 17
9 7 7 6 5 4 5 5 5 6 7 7 8 8 7 9 10 10 11 12 13 13 14 13 14 15 15 14 12 13 14 15 15 15 15 15 16 17 16 16 15 15 16 17
7 7 7 6 5 6 6 6 7 8 8 9 8 9 9 11 12 13 13 14 15 16 15 15 15 15 14 15 14 15 15 15 15 15 15 16 17 17 19 17 16 16 16 16
8 8 7 7 9 8 8 7 7 8 9 10 10 11 12 12 14 15 16 16 16 16 17 16 16 17 16 15 15 16 16 16 16 17 17 17 18 18 18 19 20 19 17 16
10 9 10 8 10 11 10 10 11 12 12 13 12 14 14 15 17 18 17 16 17 18 18 18 18 18 16 16 17 17 17 17 17 17 17 18 18 18 18 18 18 18 17 16
10 9 10 11 12 12 13 13 14 15 14 15 15 16 17 18 18 18 18 18 19 20 19 19 19 19 18 17 17 17 17 18 17 17 16 16 16 17 16 16 17 17 18 18
12 11 11 12 12 13 14 14 14 15 16 17 17 17 17 18 19 19 19 19 19 19 19 18 19 17 16 16 16 16 16 17 17 17 17 17 17 17 17 17 18 18 19 18
12 12 12 12 13 14 15 15 16 17 18 18 19 19 19 20 20 20 19 19 19 19 18 18 17 17 17 16 15 15 16 16 17 17 17 17 17 17 17 18 18 19 19 19
12 13 13 14 14 15 15 16 17 17 18 18 19 20 19 19 19 19 19 19 19 20 19 18 18 18 18 17 16 16 17 17 18 18 18 18 19 19 19 19 19 19 19 20
14 14 14 15 15 16 17 17 18 18 18 19 19 19 20 20 19 20 20 21 21 20 19 18 18 18 18 18 18 17 18 18 19 20 19 19 20 20 20 21 20 20 20 21
16 16 17 17 17 17 17 18 19 19 19 19 20 21 21 21 20 19 20 21 21 20 20 21 21 20 20 19 19 19 19 20 20 20 20 20 21 21 21 21 21 21 21 21
16 17 17 17 17 18 18 18 18 19 19 19 19 20 20 21 21 22 22 21 21 21 21 21 21 22 21 21 20 20 21 21 21 21 21 21 21 21 22 22 22 21 21 21
16 16 17 18 18 18 18 18 19 19 20 20 21 21 21 20 20 21 22 21 20 21 21 22 23 22 22 20 20 21 21 21 22 22 22 22 21 21 22 22 22 22 22 22
16 16 17 17 17 18 19 18 18 18 19 19 20 19 19 19 20 19 20 21 22 22 23 23 23 22 22 20 21 21 21 22 22 22 22 23 22 23 23 23 23 22 22 23
17 17 16 17 17 18 18 17 18 18 18 19 19 19 19 18 19 20 20 21 22 21 21 23 23 22 20 21 21 21 21 22 22 21 22 22 22 22 21 21 22 22 21 21
17 17 17 17 17 16 16 17 17 17 18 19 19 19 19 19 19 19 20 21 21 22 21 21 22 21 21 21 21 21 21 21 20 21 21 20 20 20 21 21 21 21 21 21
16 16 16 17 17 17 17 17 17 18 18 18 19 18 18 19 19 19 20 20 20 20 20 20 20 20 20 19 19 19 19 19 22 20 20 20 20 20 21 21 21 21 21 22

GFSNGP_con_lsi_075.txt.gz
Lid_Strength_Index
10 10 10 10 10 10 10 10 13 11 11 8 7 6 6 5 5 5 5 4 3 3 3 2 2 2 2 2 2 1 2 2 2 1 1 1 1 1 1 1 1 0 1 1
12 9 10 11 10 9 9 9 9 9 9 6 5 5 6 6 5 5 5 4 4 3 3 2 2 2 2 2 2 1 2 2 1 1 1 1 1 1 1 1 1 1 1 1
14 11 10 13 10 9 9 8 8 11 8 6 6 6 5 5 5 5 5 4 4 3 3 3 2 2 2 2 1 2 2 2 2 1 2 1 1 1 1 1 1 1 1 1
13 12 17 10 8 8 9 8 7 7 7 6 6 5 4 4 5 5 4 4 3 3 3 2 2 2 1 1 2 2 2 2 2 2 2 1 1 2 1 1 1 1 1 1
15 14 11 9 8 8 9 9 6 7 6 6 5 5 5 4 4 4 3 3 3 2 2 2 2 2 3 2 2 2 2 2 2 2 2 2 2 2 1 1 2 2 1 1
12 16 16 10 7 6 6 11 6 6 6 6 5 9 7 4 3 3 3 3 3 2 2 2 2 2 2 2 2 2 2 2 2 1 2 2 2 2 1 1 2 2 7 8
14 14 11 7 6 5 12 12 6 5 5 6 7 6 4 3 3 3 3 3 2 3 3 3 4 3 3 3 3 2 2 1 2 1 2 2 2 1 2 3 7 10 13 13
13 16 16 5 6 10 8 6 5 5 5 5 5 4 4 3 3 3 3 3 3 3 5 7 8 7 3 3 2 2 2 2 2 2 2 2 2 4 7 9 12 14 15 16
10 10 6 5 6 5 4 5 5 5 4 4 5 5 4 4 4 3 3 3 3 5 8 9 10 11 10 9 7 5 3 5 7 8 8 7 8 11 12 12 13 14 15 17
11 7 8 5 4 4 4 5 4 4 4 4 5 4 4 4 4 4 5 5 6 7 10 12 12 12 12 11 9 10 11 11 12 12 13 13 13 12 12 13 15 16 17 18
8 6 6 5 5 4 4 4 4 3 4 4 5 5 5 4 5 5 6 8 8 10 12 13 12 13 13 12 12 13 14 14 15 15 16 17 17 16 16 15 15 16 17 18
10 7 7 6 4 4 5 5 5 5 6 6 6 7 6 6 7 8 9 10 10 12 12 13 13 14 14 14 14 14 15 16 16 17 17 17 17 18 17 16 16 16 16 17
7 6 5 5 5 6 7 7 6 6 7 8 8 9 10 10 11 10 11 12 13 13 14 14 16 16 16 15 15 15 16 17 17 17 17 18 18 18 19 17 16 16 16 16
7 7 6 7 8 8 8 8 8 8 9 10 11 12 12 14 14 14 14 15 15 15 16 16 16 17 16 16 15 16 16 16 17 17 17 18 18 18 18 19 19 19 16 16
9 8 8 9 10 10 10 10 10 12 13 13 14 15 14 16 17 17 16 15 16 17 17 17 16 16 15 16 16 17 17 17 17 17 17 17 17 18 18 19 19 19 18 18
10 8 9 10 10 11 11 11 12 13 13 14 15 15 16 15 16 17 18 18 18 18 17 18 17 16 14 14 15 15 15 17 16 16 16 16 16 17 17 17 18 18 18 18
12 11 11 11 11 12 13 13 13 14 15 16 16 16 16 16 17 18 18 17 18 18 17 17 17 15 15 15 14 15 15 14 15 16 16 16 17 18 18 18 19 19 19 18
11 12 12 12 12 13 14 14 14 15 16 16 17 17 18 18 19 18 18 17 17 18 17 16 16 16 15 15 15 16 16 16 16 17 16 16 16 17 17 18 19 19 19 19
11 12 12 12 12 13 14 14 15 16 16 17 17 18 19 19 19 19 19 19 19 20 19 17 16 16 16 16 15 15 16 16 17 17 18 18 18 18 18 19 19 19 19 20
13 13 13 14 14 14 16 15 16 17 16 17 18 18 19 18 18 19 19 21 21 20 19 19 18 18 17 17 16 17 17 17 18 18 18 18 19 19 19 19 19 20 20 20
15 15 16 16 16 16 16 16 17 17 17 18 19 20 20 20 20 19 19 21 21 20 19 20 20 19 18 18 17 18 18 18 19 19 19 19 20 20 20 20 20 20 20 20
15 16 16 16 17 17 16 16 17 17 18 18 18 18 18 19 20 20 21 20 20 21 20 20 20 21 19 19 19 19 19 19 20 19 20 20 20 20 20 20 20 20 20 21
15 15 16 16 17 17 17 18 18 18 19 19 19 19 19 19 19 20 22 21 20 21 20 21 21 20 20 18 18 19 19 20 20 20 20 20 20 20 21 21 20 20 21 21
15 15 16 15 16 16 18 17 17 17 18 18 18 18 17 18 18 18 19 20 20 21 22 21 21 20 20 19 19 19 19 19 20 20 20 20 20 20 20 21 21 20 21 21
15 15 15 15 16 16 16 16 16 16 16 17 17 17 17 17 18 19 18 19 21 19 20 21 21 20 19 19 20 19 19 20 20 19 20 20 20 20 20 20 20 20 20 20
15 15 15 15 15 14 15 15 15 15 16 17 17 17 17 17 18 18 19 19 19 19 19 19 20 18 18 19 19 19 19 19 19 19 19 18 18 18 19 20 19 19 20 20
14 14 14 14 15 15 14 14 15 16 16 16 17 16 16 16 17 16 17 17 17 17 17 17 17 18 18 17 17 17 17 17 19 19 18 18 18 18 19 20 20 20 20 20

GFSNGP_con_lsi_078.txt.gz
Lid_Strength_Index
10 11 11 13 12 12 14 13 15 13 12 10 8 7 6 6 5 5 5 5 4 4 4 3 3 3 2 2 2 2 2 2 2 2 1 1 1 1 1 1 1 1 1 1
12 10 11 12 10 10 10 11 10 11 12 8 7 6 6 6 6 6 5 5 4 4 3 3 3 3 2 2 2 2 2 2 2 2 2 2 2 2 1 1 1 1 1 1
14 11 11 14 11 10 9 9 9 11 9 7 7 6 6 6 5 6 5 5 4 4 4 3 3 3 3 3 2 2 2 2 2 2 2 2 2 2 2 2 2 2 2 1
15 12 19 10 7 8 9 8 7 8 7 7 6 6 5 4 5 5 4 4 4 4 3 3 3 3 2 2 2 2 2 2 2 2 2 2 2 2 2 2 2 2 2 2
15 15 12 10 8 9 10 11 7 7 7 6 6 6 6 5 4 4 4 3 3 3 3 3 3 4 4 3 2 3 3 2 2 2 2 2 2 2 2 2 2 2 2 2
14 16 17 10 7 6 6 11 6 6 7 7 6 10 8 4 4 4 3 3 3 3 3 5 6 6 5 3 3 5 4 2 2 2 2 2 2 2 2 2 2 2 2 5
15 16 12 7 7 6 13 13 6 6 6 7 8 7 5 4 4 3 3 3 3 3 5 7 7 7 8 7 9 7 5 2 3 3 2 2 2 2 2 2 7 11 13 14
14 15 17 6 7 11 9 7 6 6 6 6 5 5 4 4 4 4 4 3 3 5 6 8 9 9 9 10 10 8 8 8 8 8 8 5 4 7 8 10 13 15 16 16
11 11 6 6 7 5 5 6 6 6 5 5 5 5 4 4 4 4 4 5 6 7 8 9 9 10 10 11 10 10 11 12 13 13 12 11 10 11 12 12 14 15 16 16
10 8 7 7 6 5 5 5 4 5 5 5 6 5 5 4 5 5 6 7 8 9 10 10 10 11 11 11 10 11 13 14 14 15 16 16 14 14 14 15 16 16 17 18
11 9 7 7 6 5 5 5 5 5 5 6 6 7 7 6 8 8 9 10 10 11 11 12 12 12 12 11 11 12 13 14 15 16 17 17 17 17 17 16 15 16 18 17
12 8 8 8 7 6 7 6 6 6 7 7 8 9 9 10 11 12 12 13 13 13 14 14 14 13 13 11 12 12 14 15 15 16 17 17 18 18 16 17 16 16 17 17
8 7 6 6 7 7 8 7 7 8 9 10 10 11 12 14 14 14 15 15 15 15 15 14 14 14 14 13 12 14 14 15 16 17 18 18 18 19 20 17 16 16 16 16
8 7 7 8 10 9 9 8 8 10 11 12 13 14 15 16 16 16 16 16 15 16 15 15 14 14 14 13 13 14 14 15 16 17 18 18 18 19 19 20 21 19 18 17
9 8 9 9 9 10 9 10 10 12 13 14 14 15 16 17 17 17 16 16 15 15 16 16 16 16 14 13 14 15 15 15 15 16 16 17 17 19 19 19 20 19 19 18
10 9 9 10 11 12 12 13 14 14 15 15 16 16 16 16 17 17 17 16 17 18 17 18 17 15 15 15 14 15 15 15 16 16 17 17 18 19 20 20 20 20 19 19
12 13 12 12 12 13 14 14 14 15 16 16 16 15 16 16 17 17 17 17 18 18 17 18 17 16 15 15 16 16 16 16 16 16 17 18 18 19 19 20 20 20 20 20
12 12 12 12 13 13 14 14 15 15 16 16 16 17 18 19 20 19 19 18 19 20 19 18 17 17 16 16 15 16 16 17 17 17 17 18 18 18 19 19 19 20 20 20
12 13 12 12 13 13 14 15 15 15 15 16 17 18 18 19 19 20 20 20 21 22 21 19 17 17 17 16 16 16 17 17 17 18 18 19 19 19 19 20 20 20 20 21
14 14 14 15 15 15 16 16 16 16 16 17 18 19 20 19 18 19 20 22 21 20 20 20 18 19 18 18 18 17 18 18 18 19 19 19 19 20 20 20 20 21 21 22
15 16 16 16 17 16 16 16 17 18 17 18 19 20 20 20 21 20 20 22 21 20 20 20 20 19 19 19 19 19 19 20 20 20 20 20 21 21 21 21 21 21 21 21
16 16 17 17 17 17 17 17 17 18 18 19 18 17 18 19 20 21 22 21 21 21 21 20 20 21 20 19 19 20 20 20 20 20 20 21 21 21 21 22 22 22 22 22
16 16 16 17 17 18 17 17 17 18 18 18 18 19 19 19 20 21 23 21 21 21 20 21 21 20 20 19 19 19 20 20 21 21 21 21 21 22 23 22 22 22 24 22
16 16 16 16 16 16 18 17 17 18 18 18 19 19 17 18 19 18 19 20 20 21 21 20 20 20 20 19 20 21 21 21 20 20 20 22 21 21 22 23 23 23 23 24
15 15 15 16 16 17 16 16 16 16 16 17 17 17 17 18 19 19 19 19 19 19 20 21 20 20 19 19 20 20 20 21 21 21 20 21 21 22 22 22 23 24 23 22
14 14 14 14 13 13 14 14 15 15 16 17 17 17 17 17 17 17 18 18 18 19 18 18 19 19 19 19 19 19 19 20 21 20 20 20 20 20 21 22 21 21 22 23
13 13 14 14 14 14 14 14 14 15 15 15 16 16 16 16 17 17 18 17 17 17 17 17 17 18 18 18 18 18 17 18 21 20 19 19 19 20 21 21 22 22 23 23

GFSNGP_con_lsi_081.txt.gz
Lid_Strength_Index
12 11 11 13 13 13 14 14 17 14 14 11 10 9 8 7 6 7 6 6 6 5 5 4 3 4 4 4 3 3 3 4 3 3 2 2 2 1 1 1 1 1 1 2
13 11 11 12 11 12 12 13 13 12 13 9 7 7 7 7 7 7 7 6 5 4 4 4 4 4 4 4 4 2 3 3 3 3 2 2 2 2 2 2 2 1 1 1
16 12 12 16 12 11 11 11 12 14 10 8 8 8 8 7 7 7 7 6 5 5 5 5 6 6 6 4 3 2 3 3 3 3 3 2 2 2 2 2 2 2 2 2
16 14 20 12 8 8 10 9 8 8 8 7 7 7 6 6 7 6 6 5 5 5 5 6 7 7 6 4 5 5 5 4 3 3 3 3 3 3 2 2 3 2 2 2
17 17 13 11 9 10 11 11 7 9 8 7 7 7 8 6 5 5 5 5 5 6 6 7 7 7 6 6 6 6 7 6 4 5 6 3 3 3 3 3 3 3 2 2
15 18 20 12 8 7 7 14 8 7 8 8 7 11 9 6 5 5 5 5 6 7 8 9 9 8 8 8 7 8 7 6 7 7 7 8 5 3 3 3 3 3 3 3
15 17 14 8 7 6 14 14 8 7 7 8 9 8 6 5 6 7 7 8 7 7 9 9 9 9 9 9 10 8 7 8 9 10 10 9 9 5 3 3 4 5 9 13
15 17 18 7 8 12 10 7 7 7 7 8 7 6 6 6 7 8 9 9 8 9 9 10 10 10 11 11 10 9 9 10 11 12 13 13 12 11 10 7 10 14 16 17
12 13 8 7 8 7 6 7 7 7 7 7 8 8 7 8 8 10 10 10 10 10 10 11 11 11 12 11 10 9 10 11 12 12 14 15 15 15 13 12 13 15 15 17
11 10 9 8 6 6 6 7 7 7 8 8 9 9 9 10 11 11 11 12 11 12 13 13 12 12 12 11 10 10 11 12 13 14 14 15 16 16 16 17 15 16 17 18
11 9 8 8 7 7 7 7 7 8 8 9 10 10 11 12 12 12 13 13 13 14 14 14 13 13 13 12 11 11 12 13 13 14 14 15 15 16 16 16 16 17 17 17
13 9 9 9 8 8 9 9 9 9 11 11 11 12 12 13 14 14 15 15 15 15 15 14 14 14 13 12 13 13 14 14 14 14 15 15 15 16 15 16 16 16 16 17
11 8 9 10 10 9 9 10 11 12 12 13 14 14 14 15 15 15 15 16 16 16 15 15 15 14 13 13 13 14 15 14 15 15 15 16 16 17 18 17 16 16 16 15
9 7 9 10 12 10 10 11 11 13 14 14 15 16 16 17 17 17 17 16 16 16 16 15 15 15 14 13 14 14 14 15 15 15 16 16 17 17 18 19 20 20 18 17
10 9 9 10 11 12 12 12 14 15 15 16 15 16 17 18 18 18 17 17 17 17 17 17 17 16 15 14 15 15 15 16 16 16 17 17 17 17 18 18 19 20 19 20
11 11 11 12 13 14 14 14 16 16 16 17 17 17 17 18 19 19 19 19 19 20 19 18 18 16 15 15 16 17 17 16 17 17 18 18 19 19 20 20 21 21 22 22
14 15 14 13 15 15 16 16 16 17 18 19 18 17 18 19 20 20 20 20 21 21 19 18 18 16 16 16 17 17 18 18 18 18 18 18 18 19 20 20 21 21 22 21
13 13 13 14 14 16 16 16 16 17 18 18 18 19 20 21 21 21 20 20 21 21 21 19 18 17 17 17 17 17 17 18 18 19 19 19 19 19 20 20 21 21 21 21
14 15 15 15 15 16 16 16 17 16 17 18 18 19 20 20 20 20 20 21 21 22 22 20 17 18 18 17 17 18 19 20 19 19 20 20 20 20 21 22 22 22 22 23
15 15 16 16 16 17 18 18 18 18 18 19 19 20 21 21 19 21 21 22 21 21 20 20 19 19 19 19 19 19 19 20 21 21 22 22 23 23 22 23 23 23 24 24
18 18 18 18 18 18 18 18 19 19 19 19 20 21 22 22 22 21 22 23 22 20 20 20 20 19 19 20 20 21 21 21 22 22 23 24 25 25 25 26 26 26 24 24
20 19 20 19 19 19 19 18 18 19 19 19 19 19 20 21 22 22 22 23 21 22 21 21 21 21 20 20 20 21 21 22 23 23 24 25 27 27 28 28 29 28 25 27
18 18 18 19 19 19 19 19 19 20 21 21 20 21 21 21 21 23 23 21 21 22 21 21 21 21 21 21 22 22 22 23 24 25 26 27 29 29 28 25 26 31 31 27
16 16 17 17 17 18 19 19 18 18 19 19 20 20 18 20 21 19 20 20 22 23 22 21 22 21 23 22 22 24 24 24 24 25 25 27 25 25 29 32 32 32 31 29
17 16 15 16 16 16 16 15 16 16 17 17 17 17 18 18 21 20 21 21 20 20 23 23 21 21 23 24 24 23 26 25 26 25 24 28 28 31 31 31 31 30 27 29
15 16 15 15 15 14 14 14 16 15 16 18 18 21 21 20 19 19 20 20 21 21 21 25 28 27 27 24 27 28 24 27 29 29 26 27 27 25 28 30 28 27 30 32
14 14 14 15 15 15 15 15 16 18 20 22 21 19 18 21 21 20 23 25 25 25 25 24 24 25 27 26 27 26 26 26 27 27 26 27 28 27 29 31 31 32 31 30

GFSNGP_con_lsi_084.txt.gz
Lid_Strength_Index
12 11 11 12 13 13 14 14 17 15 14 12 10 10 9 7 7 7 6 6 5 6 6 7 6 6 5 5 3 3 4 4 4 4 3 3 3 2 2 1 1 1 1 1
14 11 11 13 11 12 13 13 13 13 14 9 8 8 8 8 7 7 7 6 7 7 7 7 8 7 6 5 5 3 4 3 3 3 3 4 3 3 3 3 2 2 2 2
16 12 12 16 12 12 12 11 12 15 11 9 9 8 8 8 7 7 7 7 8 9 9 9 9 8 7 7 6 6 6 6 4 5 3 3 2 2 3 3 3 3 3 2
16 14 19 12 10 9 10 10 10 10 9 9 8 8 7 7 7 7 8 9 10 10 11 11 11 10 9 8 8 8 8 7 6 6 7 6 5 3 2 3 3 3 3 3
17 17 13 12 11 10 11 12 9 9 9 8 7 8 9 7 7 8 9 9 9 10 11 12 12 11 10 11 10 9 9 9 9 8 8 7 9 8 6 2 3 3 2 3
15 18 20 12 8 7 7 15 8 8 8 8 8 12 10 9 9 10 9 10 11 11 12 12 12 10 11 11 11 10 9 10 10 10 10 9 9 8 7 7 2 2 3 3
16 17 14 9 8 7 15 15 8 8 8 8 9 9 9 9 11 11 11 12 11 11 13 13 13 11 12 12 12 10 10 11 11 12 11 11 11 10 9 9 9 4 4 11
15 17 18 8 9 12 10 8 8 8 8 9 9 9 10 11 12 12 13 13 12 12 13 13 13 12 12 13 11 10 11 12 13 13 13 13 13 12 12 11 11 13 15 16
13 13 9 7 8 6 6 8 8 8 8 8 9 11 11 12 13 13 14 14 13 13 14 14 13 13 14 13 12 10 11 13 13 13 14 13 13 14 14 12 14 15 16 17
11 10 9 8 7 7 7 8 8 8 9 9 10 12 13 13 14 15 15 14 14 15 15 15 14 13 13 12 11 11 13 13 13 14 14 14 14 14 14 14 14 15 15 17
11 9 8 8 8 8 9 8 10 11 11 12 12 13 14 15 15 16 15 15 14 15 15 14 14 14 13 13 12 13 13 13 14 14 14 15 14 14 14 14 14 15 16 17
13 11 9 10 9 8 11 12 12 12 14 14 14 15 15 16 16 16 16 15 15 15 15 15 15 14 14 13 13 14 14 14 14 14 15 15 16 16 14 14 13 13 13 14
10 10 11 11 11 10 12 13 13 14 15 16 16 16 16 16 16 16 16 16 17 17 16 16 16 16 14 15 14 15 15 15 15 16 16 17 17 17 18 16 15 15 14 14
8 8 11 11 13 11 12 13 13 15 15 16 17 17 17 18 17 18 18 17 17 17 17 17 17 17 16 16 16 17 17 17 16 16 17 17 17 18 18 18 20 20 18 17
11 10 11 11 12 12 12 13 15 16 16 17 17 18 18 20 20 20 19 18 18 19 19 18 18 18 17 17 18 17 17 17 17 18 18 19 19 19 20 20 20 21 20 20
11 11 11 13 14 14 15 15 16 16 17 17 18 18 19 20 20 21 21 21 21 21 20 20 19 18 17 18 19 18 18 18 18 18 19 20 20 20 21 21 21 22 22 22
14 15 14 15 15 16 16 16 17 18 19 19 19 19 20 20 21 22 22 22 22 22 22 20 20 18 18 19 20 19 18 18 19 19 19 20 20 21 21 21 22 22 23 22
14 15 15 14 16 16 17 17 17 18 19 19 20 21 21 22 22 22 22 22 22 22 22 20 18 18 18 18 18 18 18 18 19 19 19 20 20 21 22 22 22 23 24 24
15 15 15 16 16 17 17 18 18 18 19 19 20 21 21 21 21 22 22 22 22 22 21 20 17 18 18 17 18 18 19 20 20 20 20 21 21 21 23 24 24 25 25 25
17 16 16 17 17 17 19 18 18 19 19 20 20 21 22 22 22 23 22 23 22 21 20 20 18 19 19 19 19 20 20 20 21 22 23 23 24 25 24 24 25 25 26 26
21 20 20 19 20 19 19 19 19 20 20 20 21 22 23 22 22 23 23 24 23 21 20 20 20 20 20 20 20 21 22 23 24 24 25 25 25 25 27 27 27 28 29 29
23 21 22 21 20 20 19 19 19 20 20 20 21 22 22 23 23 23 23 23 21 22 21 20 20 21 21 21 21 22 22 23 24 24 25 27 28 28 30 30 29 31 31 34
19 19 19 19 19 19 19 19 20 20 21 20 21 21 21 21 21 22 24 21 20 21 20 22 22 22 22 23 24 24 24 24 25 27 27 29 32 32 30 31 32 32 32 32
20 19 19 18 17 17 18 18 17 18 19 19 19 19 19 21 23 19 20 22 23 23 23 22 22 23 25 25 25 27 28 28 28 29 28 30 32 33 34 35 34 32 33 32
18 18 17 16 16 17 17 16 16 16 17 17 17 17 18 17 22 20 21 21 20 22 24 24 24 24 25 27 26 29 30 32 32 31 31 31 33 34 35 34 33 32 34 34
15 16 16 16 16 15 15 14 16 16 17 20 20 23 23 21 20 19 21 21 21 21 23 27 30 30 31 30 31 30 30 28 31 30 31 30 30 32 33 33 34 34 34 35
15 15 15 16 16 16 16 17 18 18 18 23 22 22 22 25 24 22 25 27 28 27 24 24 25 24 25 28 29 29 29 29 30 29 31 31 30 30 33 33 34 35 35 35

GFSNGP_con_lsi_087.txt.gz
Lid_Strength_Index
12 12 12 12 13 12 14 14 17 15 15 12 10 10 9 8 7 7 8 9 9 9 9 9 8 7 7 7 6 4 3 3 3 3 3 2 3 2 2 2 1 1 1 1
14 11 11 13 11 11 12 13 13 13 14 9 8 8 8 8 8 8 9 9 10 10 10 10 10 9 8 8 7 6 6 5 3 2 3 2 3 3 2 2 2 2 2 2
16 13 13 16 13 13 12 11 12 15 12 9 10 9 8 8 7 9 10 10 11 12 12 12 11 10 11 10 9 9 9 8 8 8 7 6 5 3 3 3 3 3 3 2
16 14 20 12 9 10 11 10 10 10 9 9 9 8 7 6 8 10 10 11 12 12 13 12 12 11 11 11 11 11 11 11 10 9 9 8 8 8 7 6 3 2 2 2
17 17 15 12 11 11 11 12 9 10 9 8 8 9 10 9 9 10 11 12 12 13 14 14 13 12 12 12 12 12 12 13 12 12 11 11 11 10 9 8 8 7 3 2
16 18 21 14 9 7 8 15 9 8 9 9 8 12 13 11 11 11 11 12 12 13 13 15 15 13 12 13 12 13 13 14 13 14 13 13 13 12 11 9 9 8 7 8
16 17 15 10 9 7 15 14 8 9 9 8 11 10 11 11 12 12 12 12 12 14 15 15 14 13 13 13 13 13 13 14 14 15 14 14 13 12 12 11 10 11 12 14
15 17 18 8 9 13 10 8 8 8 9 10 11 11 12 12 13 13 14 14 14 15 16 16 15 14 14 14 12 12 13 15 14 14 14 13 13 14 13 12 12 13 13 14
13 13 9 7 8 6 6 8 8 8 8 9 11 12 13 14 14 14 15 15 15 16 16 16 16 15 16 15 13 13 13 14 14 14 14 13 14 14 14 13 13 13 14 15
12 10 9 7 8 7 8 10 10 9 10 10 12 12 14 15 15 16 16 16 16 15 15 16 15 15 14 14 13 14 14 14 14 15 14 15 14 14 14 14 14 15 15 15
11 10 9 9 8 9 10 9 11 12 12 12 13 14 15 16 16 17 17 16 16 16 17 16 14 15 14 14 13 13 14 14 14 14 15 15 15 15 15 14 14 15 15 15
13 11 11 12 9 9 11 12 13 13 15 15 14 15 16 17 17 17 17 17 17 17 17 17 16 16 15 14 14 14 15 15 15 16 16 16 16 17 15 15 14 14 14 14
10 10 11 11 11 11 13 13 14 15 16 17 17 16 16 17 17 17 17 18 18 18 17 17 17 17 17 16 16 16 16 16 16 16 17 17 18 18 20 18 16 15 15 15
9 9 11 12 13 12 13 13 14 15 16 16 17 17 18 19 19 19 19 18 18 19 18 18 18 18 18 18 18 18 18 18 18 19 19 20 20 21 21 22 22 21 18 17
11 10 11 11 12 13 13 13 15 16 16 17 17 18 19 21 21 21 20 19 19 20 20 20 19 19 18 18 19 19 18 19 20 20 21 21 21 21 22 22 22 22 22 21
11 11 12 13 14 14 15 15 16 17 17 18 18 19 20 20 21 22 21 22 22 23 21 21 20 19 19 20 20 20 20 20 21 20 21 21 22 22 22 22 23 23 24 23
14 14 14 15 16 16 17 17 17 18 19 19 20 20 20 21 22 22 22 22 23 24 23 21 22 21 21 22 22 21 21 20 21 20 21 21 21 21 22 22 23 24 25 24
15 15 15 15 16 16 17 17 17 18 20 20 21 22 23 23 23 23 23 23 24 24 23 22 21 21 20 21 20 20 20 19 19 20 20 21 21 22 22 23 24 24 24 25
15 16 16 16 16 17 17 19 19 19 20 21 22 23 23 23 23 23 23 23 23 23 22 21 18 20 20 18 19 19 20 21 20 21 21 23 23 23 23 24 24 25 25 26
16 16 16 17 17 18 19 19 19 20 20 21 21 22 22 22 23 24 24 24 23 22 21 21 20 20 20 20 21 21 22 22 21 23 23 24 25 26 25 25 25 26 27 28
22 22 22 22 22 21 21 21 21 22 22 22 23 24 24 24 24 24 24 24 23 22 21 21 21 21 20 21 21 22 23 24 24 25 25 26 26 27 28 28 28 29 31 30
24 22 23 22 20 21 19 19 19 20 21 22 23 24 25 25 25 24 24 23 21 22 22 21 22 24 23 22 22 23 23 24 25 25 26 27 28 30 32 32 32 33 34 35
23 22 22 23 23 22 20 20 21 21 21 22 23 23 22 21 20 23 24 21 20 21 21 22 24 24 25 24 25 25 25 26 27 28 30 32 32 32 32 33 34 34 34 33
21 20 21 20 20 19 20 19 18 19 22 20 22 23 20 23 23 19 20 23 24 24 24 22 23 24 25 26 27 27 28 29 30 31 29 31 34 35 34 35 33 33 35 35
20 20 19 18 17 18 17 17 17 17 18 18 18 18 18 18 22 21 23 23 21 23 25 26 26 27 29 30 31 32 32 33 33 34 34 34 35 36 37 36 36 36 37 37
16 17 16 15 15 15 15 15 16 17 18 21 21 26 26 24 22 22 24 23 23 24 25 30 31 32 32 31 32 32 32 30 32 32 33 32 33 34 35 34 35 35 35 35
15 15 15 16 16 16 16 16 17 18 18 21 23 26 25 27 26 24 27 28 29 27 26 28 24 26 28 31 30 29 29 30 32 31 34 34 33 34 35 35 35 36 37 37

GFSNGP_con_lsi_090.txt.gz
Lid_Strength_Index
12 12 12 12 13 12 14 14 16 14 15 12 10 9 9 8 8 9 10 11 12 12 11 10 10 9 8 7 6 3 3 3 3 4 3 3 3 3 2 2 2 2 2 2
14 12 12 14 12 12 12 12 13 12 13 9 8 8 8 8 8 10 11 11 12 12 12 12 12 11 11 10 10 9 8 8 8 7 4 4 3 3 3 3 3 2 3 3
16 13 14 16 13 13 13 12 12 15 12 9 10 9 8 8 9 10 11 12 13 13 13 13 12 12 12 12 11 11 11 10 10 9 8 8 7 7 7 5 2 2 2 2
16 14 20 13 11 11 11 10 10 10 9 9 9 10 9 8 10 11 12 13 14 14 14 14 12 13 12 12 12 13 13 13 13 12 11 11 10 10 10 9 8 7 6 3
17 17 15 13 11 11 12 12 9 10 9 9 9 10 12 11 11 12 12 13 14 14 15 15 15 12 13 13 14 14 15 15 15 14 14 13 12 12 11 10 9 8 9 11
16 18 22 14 9 8 9 15 9 9 9 9 8 12 13 11 11 12 12 13 14 15 15 16 16 14 13 14 14 15 15 16 16 15 15 15 15 14 12 11 10 10 13 14
16 16 15 10 9 8 15 14 8 9 8 9 12 11 12 12 13 13 14 14 14 15 16 16 15 14 15 15 15 15 16 16 16 16 15 15 15 14 13 12 12 12 13 14
14 16 18 8 9 13 10 7 8 9 11 12 13 13 14 14 15 15 16 16 15 16 16 16 16 15 16 16 14 14 15 16 16 15 15 15 15 14 14 13 14 14 14 14
13 13 9 8 9 8 7 9 9 9 10 11 13 14 15 16 16 16 16 16 14 15 16 16 16 16 17 16 15 15 15 16 16 16 15 14 15 14 14 14 14 14 15 15
12 10 10 8 8 9 10 11 10 10 11 11 13 14 15 16 16 17 17 16 16 16 17 17 16 16 15 15 14 14 15 15 15 16 16 16 15 14 14 14 15 15 15 15
11 10 10 10 10 9 10 10 12 13 13 13 14 15 16 16 17 17 17 17 17 17 17 18 17 17 16 15 14 14 14 15 15 15 15 16 16 16 15 14 14 15 15 15
13 11 11 12 11 11 13 13 13 13 15 14 15 16 16 17 17 17 18 18 18 18 18 18 18 18 18 16 15 15 15 16 17 17 17 17 17 17 15 15 14 14 14 15
10 10 11 11 12 12 14 14 15 15 15 16 16 16 17 18 18 18 18 19 19 19 18 18 19 19 19 18 17 18 18 18 18 19 19 19 20 20 22 19 16 16 15 15
10 10 11 12 14 13 13 14 14 15 16 17 17 17 18 19 19 20 20 19 19 19 19 19 19 20 19 20 20 20 20 20 20 21 21 22 22 23 23 23 23 23 19 18
12 11 12 12 13 14 13 14 16 16 17 17 17 19 20 21 21 21 20 19 19 20 21 20 20 20 19 19 20 21 20 21 23 23 23 23 23 23 23 24 24 24 24 23
13 12 13 14 15 15 15 15 16 17 18 18 19 20 20 20 21 21 21 22 22 23 22 22 21 21 20 21 22 22 22 21 22 23 23 23 23 23 24 24 25 26 26 26
14 14 15 15 16 17 17 17 17 19 20 20 20 20 20 21 22 22 22 22 22 23 22 22 22 22 21 22 23 23 22 21 22 21 22 22 23 23 24 25 25 26 27 26
15 15 15 15 16 17 17 17 18 19 20 20 21 22 23 23 23 23 23 23 23 23 23 22 23 23 22 22 22 21 22 21 21 22 22 23 23 23 24 24 24 25 26 26
15 16 16 16 16 17 18 19 20 20 21 22 23 24 23 24 24 25 26 24 24 24 23 23 18 20 21 19 20 21 22 23 22 22 23 25 25 24 25 26 27 27 26 26
17 17 17 18 18 18 20 21 21 22 22 22 23 23 23 24 24 25 24 24 23 22 21 21 21 21 21 22 22 22 23 24 23 25 25 26 28 29 28 27 27 29 32 30
23 22 23 22 24 24 26 26 24 24 25 25 24 27 26 26 26 26 25 24 24 22 22 22 22 22 22 22 22 24 25 27 27 27 28 30 31 30 31 32 32 33 32 32
25 24 25 24 22 22 22 22 22 23 24 26 28 29 28 26 26 24 25 22 21 22 21 22 22 25 24 23 23 24 24 25 26 27 29 30 32 33 35 35 35 35 36 37
24 22 22 23 23 23 21 21 23 23 25 27 27 27 25 23 23 25 25 21 20 22 21 23 24 25 25 25 25 26 26 27 28 29 33 34 35 35 34 34 35 35 35 34
23 21 22 21 20 19 20 19 19 20 24 22 24 25 21 24 25 20 21 24 26 26 26 25 26 26 27 29 30 30 31 32 33 33 31 33 36 36 35 36 35 36 37 37
20 21 20 20 19 20 18 17 17 17 18 18 19 19 19 20 25 24 25 25 23 25 28 29 29 30 33 33 34 34 34 35 35 35 35 35 36 37 38 38 37 37 38 38
17 18 17 16 16 16 16 16 17 17 18 22 22 28 27 26 23 23 25 25 24 25 27 31 32 33 33 31 33 33 33 30 33 33 34 34 35 34 36 35 36 36 37 37
18 18 17 17 17 17 18 18 18 18 18 21 23 26 25 27 28 25 28 29 30 30 30 31 29 28 30 32 31 30 31 31 32 32 34 34 35 35 34 34 35 37 38 38

GFSNGP_con_lsi_093.txt.gz
Lid_Strength_Index
12 11 11 12 12 12 13 13 15 13 12 10 9 9 8 7 8 9 11 12 12 12 12 11 11 11 10 9 7 3 3 4 3 2 2 1 1 1 1 1 1 0 1 1
14 12 12 13 12 12 11 11 11 11 12 8 8 7 8 8 9 11 12 12 14 14 13 13 13 12 12 12 11 10 10 10 8 7 7 7 6 3 2 2 2 2 1 1
16 13 13 15 12 12 11 11 11 13 10 8 9 10 9 9 10 12 13 14 14 14 15 14 12 12 13 13 12 13 13 12 11 10 10 9 8 8 8 8 6 5 4 3
15 14 19 12 9 10 10 9 9 9 9 9 9 10 11 10 11 12 13 14 15 16 15 14 13 12 12 13 14 14 15 14 14 13 12 12 11 11 11 10 8 8 10 11
16 16 14 12 10 10 11 11 9 10 9 8 9 10 13 12 12 13 13 14 15 15 16 15 14 13 13 14 14 15 15 15 15 14 13 13 13 12 11 10 10 12 13 14
14 18 19 13 9 7 8 14 8 8 9 9 8 12 14 13 13 14 14 14 15 15 15 16 15 14 14 15 15 16 16 15 14 14 14 14 14 13 12 12 12 13 14 14
15 16 13 10 8 7 14 13 9 8 9 10 13 12 13 14 15 15 15 15 14 15 16 16 15 15 16 16 17 16 16 16 15 15 15 15 14 14 14 14 14 15 15 14
14 16 18 8 8 12 9 8 8 9 10 12 13 14 14 15 16 16 16 15 15 16 16 16 16 15 16 16 15 15 15 17 17 17 16 16 16 16 15 15 16 16 15 15
13 14 9 8 9 9 8 10 10 10 10 11 13 14 15 16 16 16 16 16 15 16 16 16 16 16 17 16 15 15 16 17 17 17 16 16 16 16 16 16 15 15 15 15
11 10 11 10 9 9 10 12 12 10 10 12 14 14 16 16 16 16 16 16 16 16 17 17 16 16 16 15 15 15 16 16 16 17 16 16 16 15 15 15 15 15 15 15
11 11 10 11 11 11 11 11 12 12 12 12 14 15 16 16 17 17 17 16 16 17 17 17 17 17 16 15 14 15 15 15 15 16 16 16 16 15 15 14 14 14 14 14
13 11 12 13 12 12 13 14 14 13 14 14 13 16 16 17 17 17 17 17 17 17 17 17 17 18 17 16 15 15 16 16 16 16 16 16 16 17 15 15 14 14 14 14
11 10 12 12 12 12 14 14 14 15 15 16 15 15 16 17 17 17 17 18 18 18 18 18 18 18 18 17 17 17 17 17 17 17 17 17 18 18 18 18 17 17 16 15
11 10 12 13 14 13 14 14 15 15 15 16 17 17 17 18 18 18 19 18 18 18 19 19 19 19 18 18 18 19 18 19 17 18 18 18 18 19 19 19 19 20 19 18
11 11 12 12 13 14 13 14 15 16 16 17 17 18 18 19 20 20 19 19 19 20 20 20 20 20 18 17 18 18 17 18 18 18 19 19 19 19 19 19 20 20 19 19
12 12 13 14 15 15 15 15 16 17 17 18 18 19 19 19 20 20 20 20 20 22 21 21 21 20 19 18 18 18 18 19 19 18 18 18 19 19 20 20 21 21 21 21
13 14 14 15 15 16 17 17 17 18 19 19 20 19 20 20 21 21 21 21 21 21 21 21 21 21 20 20 18 17 17 18 19 18 18 19 19 20 20 21 21 22 22 23
14 14 14 14 15 16 17 17 17 18 19 19 20 21 22 22 22 22 22 21 21 22 21 21 19 20 20 19 18 17 17 18 18 19 19 19 20 20 20 21 21 22 22 22
15 16 16 16 16 17 18 18 18 19 20 20 21 22 22 22 22 22 21 22 22 21 21 20 18 19 19 18 18 18 18 18 19 19 19 21 20 20 21 21 22 22 22 22
17 17 17 18 17 18 20 20 20 21 21 21 21 21 22 22 22 22 21 22 22 21 20 20 20 20 20 20 20 19 19 20 20 21 21 21 21 22 22 23 23 23 23 23
20 20 21 21 21 22 22 22 21 21 22 21 21 23 23 23 23 22 21 21 21 20 19 20 20 19 19 19 19 19 20 20 21 21 22 22 22 22 22 22 23 23 23 23
21 21 22 21 20 20 20 19 20 21 22 23 25 24 23 22 22 21 21 20 19 20 19 19 20 22 20 20 19 20 20 20 20 20 21 21 21 22 22 22 23 23 23 23
20 19 19 20 20 19 19 19 20 20 21 22 22 21 20 19 19 20 21 19 18 20 19 20 22 23 23 20 20 20 20 21 21 21 21 21 21 21 21 21 22 22 22 22
19 19 19 19 18 18 18 18 17 18 20 19 20 21 18 19 19 18 18 21 22 21 20 20 21 23 22 20 20 21 20 20 21 20 21 24 21 21 21 21 21 21 22 22
18 18 18 18 17 17 17 16 16 16 17 17 17 17 17 17 18 17 17 18 20 20 19 24 24 24 19 19 19 20 19 19 19 19 19 19 19 20 20 20 21 20 21 22
16 16 16 16 15 14 14 15 15 15 16 17 17 18 18 17 17 16 17 19 17 20 17 18 18 18 18 18 18 19 18 18 18 18 20 19 19 19 20 20 20 20 20 20
15 16 15 15 15 15 15 16 15 15 14 15 15 17 17 17 17 17 20 17 17 18 18 18 18 19 18 18 18 18 18 18 20 18 18 18 19 19 19 19 19 19 21 22

GFSNGP_con_lsi_096.txt.gz
Lid_Strength_Index
10 10 10 11 11 11 11 11 13 11 11 9 9 9 8 8 9 9 10 12 14 14 13 11 11 11 11 10 10 5 5 5 3 2 1 1 1 1 1 1 1 1 1 1
12 11 11 13 12 11 11 10 10 10 10 7 7 7 9 10 11 12 13 13 14 14 14 13 12 12 12 12 12 11 11 11 10 9 8 7 6 6 4 3 2 1 1 1
14 12 13 14 12 11 10 9 9 12 9 7 9 9 10 11 12 12 13 14 15 16 15 13 12 12 14 13 13 13 13 13 13 12 11 10 9 9 9 7 7 8 9 10
14 13 18 11 8 8 9 9 8 8 8 8 8 10 11 11 12 13 14 14 15 15 16 15 13 12 13 14 14 13 14 14 13 13 13 12 12 11 10 10 11 12 13 12
14 14 13 11 9 10 10 10 8 9 8 8 9 10 12 12 13 14 14 14 14 14 15 15 14 14 14 15 15 15 15 15 13 14 14 13 13 12 11 12 13 14 14 14
12 16 18 12 8 6 7 12 8 8 8 9 8 12 13 14 14 14 14 14 14 13 14 15 15 14 15 15 15 16 16 16 14 14 14 14 13 12 12 13 14 14 15 15
13 14 12 9 7 6 13 14 8 9 10 12 14 14 13 13 14 13 13 13 13 13 14 15 14 13 16 16 17 17 16 15 15 15 15 15 14 13 13 13 13 14 14 15
12 15 17 10 7 11 10 9 9 10 11 12 13 14 15 15 16 14 13 14 13 14 14 14 15 15 15 16 15 16 17 17 17 16 16 15 15 14 14 14 14 14 15 15
13 13 10 10 11 10 10 11 10 10 10 11 12 13 14 15 16 15 15 14 13 14 15 15 15 15 15 15 15 14 15 15 15 16 16 16 16 15 15 15 15 15 15 15
11 10 11 10 10 10 10 11 11 10 10 11 12 13 14 14 14 14 15 15 14 14 15 15 15 15 15 14 14 14 15 15 15 16 16 16 16 16 15 15 16 16 15 15
11 10 10 10 11 10 11 10 11 11 11 11 11 12 13 14 14 15 15 14 14 15 15 16 15 15 14 14 13 14 14 15 15 15 16 17 17 16 16 16 15 15 15 15
12 10 10 12 11 11 12 12 12 11 12 12 11 12 13 14 14 15 15 15 15 15 15 15 15 16 15 14 13 13 14 14 14 14 14 14 15 16 15 15 15 15 14 14
11 10 11 11 11 11 12 12 12 12 12 13 13 13 13 14 14 16 15 15 16 15 15 15 15 16 15 15 15 15 14 14 14 14 14 14 14 15 16 17 17 17 16 16
9 9 11 11 12 11 12 12 13 13 13 14 14 14 15 15 15 16 16 16 16 16 16 16 16 17 16 15 15 15 15 15 14 14 14 14 15 15 15 15 16 17 18 17
10 9 10 11 11 12 12 12 13 14 14 15 14 15 15 17 17 17 16 16 16 16 17 17 17 17 16 15 15 15 14 14 14 14 15 14 14 14 15 15 16 16 15 16
10 11 11 12 13 13 13 13 14 15 15 15 16 16 16 16 17 17 18 18 17 18 18 19 18 18 17 15 14 14 15 16 15 14 14 15 15 15 15 16 16 17 18 18
11 12 12 14 14 14 15 15 15 16 16 17 17 17 17 18 18 19 19 18 19 19 18 18 19 19 17 17 15 14 14 14 16 14 15 15 15 16 16 16 17 18 20 20
12 12 13 13 14 14 15 15 15 16 17 17 18 19 19 19 19 20 19 19 19 20 19 18 18 17 17 17 15 14 14 15 15 15 15 16 16 16 16 17 17 18 18 19
13 13 14 14 14 14 15 16 16 17 18 18 19 19 19 19 19 19 19 19 19 18 19 18 17 17 17 17 15 14 15 15 15 16 16 17 16 17 17 17 18 18 18 19
15 15 15 15 15 16 17 17 17 18 18 19 19 19 20 21 20 20 19 19 19 18 17 17 16 17 17 17 17 15 16 16 17 17 17 17 17 18 19 20 19 19 19 19
17 17 18 18 18 18 18 18 18 19 19 18 18 20 20 19 20 19 17 16 18 18 17 18 17 16 16 17 16 15 16 16 17 17 17 17 17 18 18 18 18 18 18 18
17 18 18 18 17 18 17 17 17 18 19 20 21 20 20 18 19 18 19 17 16 19 17 16 17 19 18 17 16 16 16 17 16 16 17 17 17 17 18 18 18 18 18 18
16 16 16 17 16 16 16 16 17 17 18 19 19 17 16 16 16 16 16 17 15 17 16 17 19 20 19 16 16 16 17 17 17 17 17 17 17 17 17 17 17 17 17 17
15 15 15 15 15 15 15 15 14 15 16 16 17 17 15 14 14 14 15 18 19 17 17 17 18 20 19 16 17 17 16 16 16 16 17 20 16 17 16 17 17 16 17 18
15 15 15 15 14 13 14 14 14 14 14 14 14 14 15 14 14 13 14 15 18 16 14 20 20 19 15 15 16 16 16 15 16 15 15 15 15 16 16 16 17 16 17 17
14 13 13 14 13 13 12 12 13 12 13 13 13 12 12 12 12 13 13 15 15 16 14 13 14 14 14 14 15 15 15 15 15 15 16 15 15 16 16 16 16 16 16 16
13 14 13 13 12 12 12 12 12 12 12 11 12 12 11 12 12 13 15 12 12 13 13 13 13 14 13 14 14 14 14 14 16 15 15 15 15 15 15 15 15 15 15 16

GFSNGP_con_lsi_099.txt.gz
Lid_Strength_Index
10 9 9 10 11 10 12 10 13 11 11 11 9 9 9 9 10 11 11 12 12 12 14 14 13 14 12 11 11 9 8 8 5 2 2 1 1 1 1 1 1 1 1 1
12 9 9 11 10 10 10 10 10 9 12 8 7 7 9 10 11 12 13 13 13 14 14 14 13 14 14 13 12 11 12 12 9 8 8 7 6 5 1 2 2 2 5 2
14 12 11 14 11 10 9 8 9 12 10 8 9 10 11 11 12 13 13 14 15 15 15 15 15 14 14 14 13 13 13 13 12 11 10 10 8 8 9 9 8 9 10 11
14 13 16 11 7 8 9 9 8 8 8 8 9 12 12 12 13 14 14 14 14 15 15 15 15 14 14 14 14 14 14 14 13 13 13 12 11 11 12 13 13 13 12 13
13 14 12 10 9 9 10 11 7 8 8 8 10 11 14 13 13 13 13 12 12 13 14 15 15 15 14 15 15 15 16 15 15 14 14 12 13 13 14 14 15 15 15 14
11 15 17 13 8 6 6 14 8 7 8 9 9 12 15 14 13 12 12 12 12 12 13 13 13 14 15 16 15 16 16 16 16 15 15 15 14 14 14 15 16 15 16 15
12 13 13 11 9 7 13 14 9 8 10 11 14 14 13 13 13 12 11 11 11 12 13 14 13 13 14 15 16 16 15 15 15 16 15 14 14 14 14 14 14 15 15 15
12 13 17 11 8 12 12 10 10 10 10 11 12 12 12 14 14 14 13 12 11 12 13 14 14 14 15 15 14 15 15 16 15 15 15 14 14 15 14 14 15 14 15 15
12 13 11 10 11 11 10 11 10 10 10 10 11 13 13 13 14 14 13 12 11 12 13 13 14 14 15 15 14 14 15 16 17 17 17 16 16 16 15 15 16 16 16 17
11 11 10 10 9 10 9 10 9 9 9 9 11 11 12 12 12 11 11 12 12 12 13 14 13 14 14 13 13 14 15 15 16 17 17 17 17 17 18 17 17 17 17 17
11 10 10 10 10 10 9 9 9 9 9 10 10 10 10 11 11 12 12 12 12 13 14 14 14 14 13 13 12 13 14 14 14 15 17 18 18 17 17 17 17 17 18 17
12 10 10 11 10 10 11 11 10 10 10 10 10 10 10 11 11 12 12 12 13 14 14 15 15 15 15 13 13 13 13 14 13 13 13 14 16 18 17 17 16 16 16 16
10 9 10 10 10 10 11 11 10 10 10 11 11 11 11 12 13 13 13 13 14 15 15 15 16 16 15 14 13 14 14 13 13 14 14 14 14 14 16 17 17 16 16 16
7 8 10 10 10 10 10 11 11 11 11 12 12 13 13 14 14 15 15 15 14 14 15 15 16 16 15 14 14 14 14 14 14 14 14 14 14 14 14 15 16 17 17 17
8 8 9 9 9 10 10 10 11 12 13 13 13 13 14 15 16 16 15 14 14 15 16 16 16 17 15 14 14 15 14 14 14 14 14 14 14 14 14 15 15 15 15 15
9 9 10 10 11 11 11 12 12 13 14 14 14 15 15 15 16 16 16 16 16 17 17 18 17 17 16 15 13 13 14 15 14 14 14 14 14 14 15 15 15 17 18 18
10 11 11 12 12 12 13 13 14 15 15 15 16 15 15 16 16 17 17 17 18 18 17 17 18 17 16 15 14 13 13 14 14 14 14 14 14 15 15 15 16 17 19 19
9 10 10 10 11 12 13 14 14 15 15 16 17 17 18 18 18 18 18 17 17 18 18 18 17 16 16 16 14 13 13 14 14 14 15 15 15 15 15 16 16 16 17 18
11 11 12 12 12 13 14 14 15 16 17 17 17 18 18 18 18 18 17 17 17 16 17 17 16 16 16 16 15 13 14 14 14 15 15 15 15 15 15 16 16 16 16 17
13 13 13 14 14 14 16 16 16 17 17 17 18 18 19 19 19 19 18 19 18 18 16 17 16 16 16 16 16 14 14 14 15 15 15 15 15 16 17 18 17 16 17 17
15 15 16 16 17 17 17 17 17 17 17 17 18 19 19 18 18 18 16 14 16 17 16 16 16 16 15 16 14 14 14 15 15 15 16 16 16 16 16 17 17 17 17 17
15 16 17 16 16 16 16 15 16 17 17 18 19 19 18 16 17 16 17 16 14 18 15 15 16 19 17 17 14 15 15 15 15 15 15 16 16 16 16 16 17 17 16 17
15 15 15 16 16 15 15 15 16 16 17 17 17 15 14 14 13 14 14 14 14 16 14 15 18 18 18 15 14 15 15 15 15 15 15 16 16 16 16 16 16 16 16 17
14 14 15 14 14 14 14 14 14 14 15 15 15 16 14 13 12 12 13 16 16 16 15 16 17 18 18 14 15 15 15 14 14 14 15 20 15 15 15 16 16 16 16 17
14 14 14 14 13 12 13 13 13 12 12 12 12 12 13 12 13 12 12 13 16 15 13 17 17 17 14 14 14 14 14 14 15 15 14 14 14 15 15 15 16 16 16 16
13 12 12 13 12 12 11 11 11 11 11 11 10 10 10 10 11 12 11 13 13 13 13 12 12 13 13 13 14 14 14 13 13 13 15 14 14 14 14 15 15 15 15 15
12 13 12 12 11 11 11 12 12 11 10 10 10 8 9 10 10 12 12 11 11 11 12 12 12 12 12 13 13 12 13 12 13 13 14 14 13 14 14 14 14 14 14 15

GFSNGP_con_lsi_102.txt.gz
Lid_Strength_Index
12 11 11 13 13 12 12 11 16 13 14 12 10 9 9 10 10 11 12 12 13 13 13 13 14 14 14 13 13 11 10 9 8 5 3 2 2 1 1 1 1 1 1 1
15 10 11 12 11 10 10 10 10 12 14 9 8 9 10 11 12 12 13 13 13 13 14 14 14 14 14 14 13 13 13 12 11 10 9 7 7 5 5 6 7 7 7 9
15 11 12 14 11 10 10 10 11 15 12 9 11 12 12 12 13 13 13 13 14 15 14 14 14 14 15 14 13 14 14 14 13 12 12 11 11 10 11 10 10 12 12 13
14 13 20 11 8 9 10 10 9 9 9 10 12 12 13 12 13 13 13 13 13 15 15 15 14 15 15 15 14 15 14 14 13 13 13 13 13 13 14 13 13 13 14 14
15 15 13 11 10 11 12 13 9 9 8 9 11 11 14 13 12 12 12 11 12 12 13 13 14 15 15 16 16 15 15 15 14 14 14 15 15 14 15 15 15 15 15 15
12 15 19 13 10 7 7 15 9 9 10 9 9 12 15 13 13 12 11 11 11 12 12 13 13 13 15 16 16 16 15 16 15 14 14 15 15 15 15 16 16 16 16 16
14 15 14 12 9 8 15 15 10 10 11 12 14 13 13 13 13 12 11 11 11 12 13 14 13 13 15 14 16 15 15 15 15 15 15 16 16 16 17 16 16 16 17 17
14 15 18 11 9 13 12 10 10 10 10 12 12 12 13 13 13 13 12 12 12 13 13 13 13 13 14 15 14 15 15 15 16 16 16 16 15 15 16 16 16 17 17 17
12 14 10 10 11 10 9 11 10 10 10 11 12 13 13 13 13 12 12 12 12 12 14 13 13 13 13 13 13 13 15 16 17 18 17 16 18 18 17 17 17 17 18 18
11 11 11 10 9 9 9 10 9 9 9 9 11 11 11 10 11 11 11 12 11 12 14 14 14 13 13 12 12 13 14 15 17 18 18 18 18 18 19 19 19 19 19 20
11 10 10 10 10 9 9 9 9 9 9 9 9 10 11 11 11 12 12 12 12 13 14 15 14 14 13 13 12 13 13 14 15 16 18 19 19 19 18 18 17 18 19 19
13 10 10 11 10 10 11 10 10 10 10 10 10 11 11 12 12 12 13 12 13 13 14 14 15 16 15 14 14 13 14 14 14 13 14 17 18 18 16 16 16 16 16 17
10 9 10 10 9 9 10 11 10 11 11 11 12 11 12 14 13 14 14 14 14 15 14 15 15 15 14 14 14 14 14 14 14 14 14 14 14 16 19 17 16 16 16 16
7 8 9 9 10 9 9 10 10 11 11 12 13 13 14 14 14 15 15 14 14 15 15 16 16 17 15 13 14 14 14 14 14 14 14 14 14 15 15 16 18 18 16 16
8 8 8 8 9 9 9 10 11 12 13 13 13 14 14 16 16 16 16 15 15 16 16 16 17 17 15 15 13 14 14 14 13 14 14 14 14 14 15 16 17 18 18 16
8 8 9 10 10 11 11 12 13 14 14 15 15 15 15 15 16 16 16 17 17 18 17 19 18 18 16 16 14 13 14 14 14 14 14 14 15 15 16 17 18 20 20 20
9 10 10 11 12 13 13 13 14 14 15 16 17 17 16 15 16 17 17 17 18 18 18 18 18 18 18 17 16 13 13 13 14 14 14 14 15 15 16 16 18 20 21 21
9 10 10 10 11 12 13 13 14 14 16 16 17 18 19 18 18 18 18 18 18 19 18 19 18 17 18 17 17 13 14 14 14 15 15 16 15 16 16 17 17 18 19 20
10 11 11 12 12 13 13 15 15 16 16 17 17 18 19 20 19 19 18 19 19 18 18 18 17 16 16 17 16 14 14 15 15 15 15 16 16 17 17 17 18 18 18 19
13 13 13 14 14 15 16 16 16 17 17 18 18 19 19 21 20 20 18 18 18 18 16 16 16 16 16 16 17 14 15 15 15 16 17 16 16 17 19 20 18 17 18 19
15 15 16 16 17 17 17 17 17 18 19 19 19 21 20 19 19 20 17 15 16 17 16 16 17 18 16 17 17 14 15 15 16 16 16 16 16 17 17 17 18 18 18 19
15 16 17 17 16 16 16 16 17 18 19 20 21 21 20 17 17 17 18 16 14 19 16 15 17 20 19 20 15 15 15 16 16 16 16 17 17 17 18 18 19 19 19 19
15 15 15 17 16 15 15 15 17 17 19 19 18 16 15 14 14 15 15 14 14 16 14 16 20 20 20 16 15 15 15 16 16 16 16 17 17 18 18 20 20 19 19 20
14 15 15 14 14 15 16 15 15 14 16 15 15 17 15 14 13 12 13 16 18 18 15 16 18 19 21 15 15 15 15 15 15 16 16 23 17 18 17 19 19 19 19 21
14 14 14 14 14 13 13 12 13 12 12 12 12 13 13 11 12 12 12 12 14 15 12 16 18 18 15 13 14 15 15 14 16 17 16 15 16 16 16 16 18 18 20 20
14 13 12 13 13 13 12 12 12 11 11 11 10 9 10 10 10 11 10 12 12 13 12 12 12 14 13 13 14 14 14 14 14 15 15 16 15 15 16 16 18 17 16 17
13 14 13 13 12 12 12 13 13 12 12 11 12 10 9 9 10 11 12 11 11 10 11 11 11 12 12 13 14 13 13 13 14 14 15 15 15 15 15 15 16 16 18 18

GFSNGP_con_lsi_108.txt.gz
Lid_Strength_Index
13 13 13 13 14 13 15 14 16 15 15 14 13 13 13 12 12 12 13 14 14 14 14 13 13 13 13 14 13 13 13 13 13 12 11 10 7 2 2 3 2 2 2 2
15 13 12 14 14 13 13 13 13 14 16 13 12 12 13 13 13 13 14 15 14 14 14 14 14 14 14 13 13 14 14 14 14 13 12 12 12 11 10 10 10 10 10 10
17 13 14 17 15 14 14 13 13 15 14 13 15 15 14 14 13 13 14 14 15 15 14 14 14 14 15 14 13 14 15 14 13 14 14 14 14 15 14 13 12 13 13 12
16 15 20 15 12 12 14 14 13 12 13 14 15 15 14 13 13 13 14 14 14 15 14 14 14 14 14 15 15 15 15 15 15 14 15 14 15 15 16 15 15 15 15 14
17 17 15 14 14 15 14 15 13 13 13 14 14 14 16 13 12 13 13 14 14 14 13 13 14 13 15 15 16 16 17 16 16 16 15 15 16 15 16 16 17 16 16 15
15 18 20 16 14 12 12 17 12 13 14 15 12 16 16 13 12 13 13 14 14 14 14 14 13 13 14 16 17 17 17 17 16 16 16 16 16 16 16 15 17 17 17 16
15 17 16 14 13 11 16 17 11 12 14 14 15 15 14 12 13 13 13 14 14 15 15 15 14 14 15 15 17 16 15 16 17 17 17 17 16 15 16 16 17 17 18 17
16 18 20 12 12 15 13 11 11 12 13 14 14 13 14 13 15 14 15 15 15 15 16 15 14 14 14 14 14 15 15 16 16 17 17 17 17 17 16 17 18 18 18 17
14 16 12 10 11 9 9 10 11 11 12 12 13 14 15 17 16 15 15 16 15 16 16 15 15 15 15 13 13 14 15 16 16 16 17 16 17 17 18 18 18 18 18 18
15 12 12 11 10 10 10 11 11 10 10 10 12 12 15 15 16 16 16 16 16 16 16 16 15 15 15 13 12 13 15 16 16 16 17 17 16 16 18 18 18 18 18 18
13 12 12 12 11 11 11 10 12 12 13 12 14 14 15 15 15 15 16 16 16 16 16 17 16 16 15 14 13 13 14 14 16 16 17 17 16 17 16 16 16 18 18 17
15 11 11 12 11 10 12 13 12 13 14 13 14 15 15 16 15 16 16 16 17 17 17 17 17 17 16 15 13 14 14 14 14 15 16 17 17 18 15 15 14 14 14 16
12 10 13 13 11 10 12 12 12 13 14 15 14 15 16 17 17 16 16 17 17 18 18 18 18 18 18 17 15 14 15 14 14 14 14 16 18 18 19 18 15 15 15 14
9 9 11 10 13 11 11 12 12 13 13 14 15 16 16 17 17 18 18 17 18 18 19 19 19 19 18 18 18 17 17 16 18 18 17 18 19 20 21 22 23 22 18 16
8 9 11 11 12 12 12 13 15 15 15 16 15 16 17 18 19 19 18 17 17 18 19 20 20 20 18 17 17 17 16 15 16 18 18 19 19 21 22 23 23 23 22 20
9 10 11 12 13 13 14 14 15 16 16 17 17 16 17 17 18 19 19 19 19 21 21 23 20 21 19 19 20 19 19 18 19 20 19 19 20 21 22 23 23 23 23 25
10 11 12 13 14 14 15 15 15 17 18 19 20 19 18 20 21 22 23 22 24 25 25 25 24 23 22 21 21 20 19 20 20 20 19 20 20 21 23 24 24 23 23 26
12 13 12 13 14 14 15 15 16 17 19 19 21 25 26 26 25 26 26 26 25 25 25 25 24 22 21 20 19 17 18 17 17 19 19 19 20 20 21 22 23 23 24 22
13 14 14 14 14 15 16 17 18 19 23 25 25 27 28 29 29 29 30 28 28 27 25 23 17 19 19 19 18 17 18 19 18 17 17 21 22 19 22 23 22 25 25 25
15 15 15 16 16 17 20 22 23 24 27 26 29 29 27 28 30 29 30 25 24 23 22 21 19 20 19 19 20 17 18 19 16 20 21 21 24 27 25 21 22 26 29 29
20 21 21 21 24 25 25 26 25 25 27 29 28 28 28 27 28 30 26 22 24 23 20 20 21 21 19 21 18 20 22 21 19 20 20 20 21 22 24 24 23 23 23 25
23 22 25 25 23 24 25 25 24 27 28 29 31 32 31 24 25 26 26 21 20 23 19 19 20 24 21 22 18 22 19 20 20 19 21 21 21 22 23 23 23 24 26 26
22 22 22 24 23 22 24 24 27 26 27 28 27 26 24 21 20 22 22 18 18 21 18 20 23 24 24 21 25 25 22 21 23 24 25 27 27 26 25 23 23 24 25 24
21 21 20 20 21 19 20 21 20 19 23 21 21 21 19 19 22 17 18 21 22 24 24 22 23 21 24 25 24 26 26 23 21 23 23 24 24 27 28 30 28 30 30 29
19 19 19 20 17 17 16 15 14 14 14 14 14 14 16 15 19 18 19 20 19 20 21 22 21 21 26 26 24 25 26 25 26 27 27 25 23 22 22 25 26 27 29 30
16 17 17 16 16 17 17 16 18 18 18 21 20 23 21 19 15 15 17 19 18 19 20 22 23 23 23 24 24 24 25 22 24 24 24 25 27 24 22 23 25 27 29 29
16 17 16 16 15 16 17 18 20 21 22 25 23 22 22 23 17 15 16 19 21 21 20 19 19 18 18 19 20 22 24 24 23 22 24 26 27 27 25 21 20 24 26 26

GFSNGP_con_lsi_111.txt.gz
Lid_Strength_Index
13 13 13 14 14 14 15 14 16 16 16 15 14 14 13 14 14 15 15 15 14 14 14 14 14 14 13 13 13 13 15 14 13 12 12 13 13 12 11 3 3 3 4 4
15 13 14 16 15 15 13 13 14 15 17 14 13 13 14 14 14 15 16 16 15 14 14 14 14 14 14 14 14 14 14 14 14 13 13 13 13 13 14 13 12 9 9 8
17 13 14 18 16 15 15 14 13 16 15 14 15 15 15 14 14 15 16 16 16 15 14 15 14 15 15 15 15 15 15 14 15 14 14 14 14 15 15 16 16 15 14 12
16 15 20 15 13 12 15 15 13 14 15 15 16 15 14 13 14 15 15 15 15 14 14 14 14 14 16 16 16 16 16 15 15 15 15 14 15 15 16 15 16 16 16 15
17 17 16 15 14 15 15 16 14 14 14 14 14 14 16 13 13 14 15 15 15 14 14 14 14 14 16 16 17 17 17 17 16 15 15 15 16 16 16 16 17 17 16 16
15 18 20 16 14 12 12 18 13 14 15 14 13 17 17 14 14 14 14 15 15 15 14 15 15 14 16 17 17 18 17 17 17 17 16 16 16 16 16 16 16 16 17 16
16 17 16 15 13 11 17 17 12 13 14 15 16 15 14 14 15 15 15 15 15 16 15 15 15 14 15 16 18 18 17 16 16 17 17 17 17 16 17 17 17 17 17 16
16 19 21 13 12 15 13 11 12 13 13 14 14 15 16 17 18 16 16 16 16 17 17 16 16 15 15 14 15 16 16 17 17 17 16 17 17 17 17 17 17 18 17 17
16 17 12 11 11 10 10 12 10 12 12 13 14 16 18 19 18 17 17 17 17 17 17 17 17 16 16 15 14 15 16 17 17 16 16 16 17 17 17 17 18 18 17 18
15 13 13 11 11 10 10 12 12 10 10 11 15 16 17 17 17 17 17 18 17 17 18 18 17 17 16 15 14 14 15 16 17 17 16 16 16 15 16 16 17 17 17 17
14 12 12 12 12 12 12 12 13 13 13 14 15 16 16 17 17 17 18 17 18 18 18 18 18 17 17 16 14 14 14 14 16 16 17 17 16 15 15 15 15 16 16 16
17 12 12 13 11 11 13 13 13 14 15 15 15 16 16 17 17 17 18 18 18 18 19 19 18 18 18 17 15 15 15 15 15 16 17 17 18 17 14 14 14 14 14 15
11 11 13 12 11 12 13 13 14 14 15 16 16 17 17 18 17 16 17 18 19 19 19 19 19 19 19 18 16 15 15 15 16 16 15 17 18 18 21 19 15 15 14 14
10 10 12 13 14 12 13 13 13 14 15 15 16 16 17 18 18 19 18 17 18 19 19 19 19 20 20 19 19 19 17 17 18 18 18 19 21 23 24 25 25 23 19 16
10 10 12 13 13 14 13 14 15 16 15 16 16 16 17 19 20 20 18 17 18 19 20 21 20 21 19 18 18 19 17 19 21 22 20 20 21 24 26 25 26 25 22 21
10 11 11 13 14 14 14 15 16 16 17 17 17 17 17 18 19 20 20 20 20 22 22 24 21 23 21 20 20 20 21 20 22 24 24 23 24 24 24 24 24 24 24 25
12 13 13 14 14 15 15 15 16 17 19 20 21 18 20 21 22 23 24 24 25 27 27 27 26 25 23 23 22 21 22 20 21 20 21 22 23 24 25 25 25 25 27 28
12 11 12 13 14 15 15 15 16 17 20 20 22 25 26 26 26 27 27 27 26 26 27 26 25 25 23 22 20 18 19 18 18 20 20 21 21 20 22 23 23 23 25 24
13 14 14 14 14 15 16 18 19 19 24 26 26 28 30 31 30 31 32 30 29 27 25 24 19 20 20 19 18 18 19 20 20 19 19 22 23 21 21 22 25 27 25 25
15 15 15 16 16 17 21 24 24 25 28 28 31 29 28 30 32 31 32 28 26 24 23 22 20 20 20 20 21 19 20 21 19 21 23 22 27 27 23 21 21 25 29 28
21 21 21 21 25 26 26 27 26 25 28 31 29 30 30 29 30 32 27 23 24 24 21 21 21 21 21 22 19 20 24 24 23 22 22 23 23 22 26 26 24 24 26 27
24 23 26 26 24 25 26 27 25 28 28 30 33 34 31 25 26 26 26 22 20 23 20 20 21 24 22 23 19 23 20 20 21 21 22 22 22 23 23 23 26 27 26 25
23 23 23 25 24 24 24 24 28 27 28 29 29 27 26 21 21 23 22 19 19 21 19 20 23 25 25 25 25 27 25 24 21 21 24 27 27 27 24 22 22 22 23 24
23 22 22 21 22 20 20 22 21 19 24 22 22 23 20 20 21 17 16 19 21 23 25 23 24 23 25 27 27 27 27 27 26 25 24 25 24 27 27 29 27 29 30 29
19 20 20 21 18 18 17 16 15 15 16 16 16 16 16 16 18 18 18 18 20 21 21 22 23 22 27 28 28 27 27 28 27 29 26 25 24 23 24 25 25 26 29 30
17 18 18 16 17 17 17 16 18 19 18 21 21 24 23 22 20 17 17 16 17 18 19 19 23 23 24 25 25 26 25 23 25 25 26 24 26 26 26 23 21 23 27 25
17 17 17 16 15 16 17 18 19 19 21 25 24 22 23 24 23 21 18 19 20 20 20 19 19 20 20 20 20 20 22 23 25 23 26 27 29 27 28 27 23 21 23 28

GFSNGP_con_lsi_114.txt.gz
Lid_Strength_Index
13 13 14 15 14 13 15 14 17 17 17 16 15 15 15 14 15 16 16 17 16 16 15 15 15 15 14 14 14 14 14 14 14 13 13 13 13 12 12 13 13 11 5 3
15 13 13 17 16 15 14 14 16 16 17 14 14 14 15 15 16 17 17 16 16 15 15 15 15 16 15 15 15 14 14 14 14 14 14 14 14 14 13 13 13 13 13 13
17 13 14 18 17 16 16 14 14 17 16 14 16 16 15 15 16 17 17 16 16 16 16 15 15 16 16 16 15 15 15 15 14 14 14 14 14 14 14 14 13 14 14 14
16 15 20 16 13 13 15 15 14 15 15 15 16 15 14 14 16 16 16 16 16 16 15 15 14 16 16 16 16 17 17 16 16 15 15 14 15 15 15 15 15 15 15 15
17 17 16 15 15 16 16 17 14 14 14 14 14 14 16 14 15 15 16 16 16 15 15 16 15 15 16 17 17 17 18 17 17 17 16 16 16 16 16 16 16 16 16 16
15 18 20 17 15 12 12 18 14 15 16 15 14 18 19 17 17 17 16 16 16 16 16 16 15 13 15 17 18 18 18 17 17 16 17 17 17 16 16 15 16 17 17 17
16 17 17 15 13 11 17 18 14 15 16 16 17 17 16 16 17 16 16 16 16 16 17 17 16 14 15 15 17 17 17 17 17 17 16 16 17 16 16 16 16 16 17 17
15 18 19 13 12 16 13 13 13 14 14 15 16 17 18 18 19 18 18 18 17 18 18 17 17 16 16 16 15 16 16 17 17 16 16 16 17 17 16 16 17 17 17 17
16 17 13 12 13 11 12 11 12 13 13 14 16 19 19 20 19 18 18 19 18 18 18 18 18 17 18 16 15 15 16 17 17 16 16 16 16 16 16 17 16 16 17 17
14 13 13 12 12 11 12 13 11 11 12 14 16 16 18 17 17 18 18 19 19 18 19 19 18 18 17 16 15 15 15 16 17 17 17 16 15 15 15 15 16 16 16 17
14 13 12 12 12 12 13 13 14 14 14 15 15 16 17 17 17 18 18 18 19 19 19 19 19 18 18 17 15 15 15 15 15 16 17 18 17 16 16 15 14 15 16 16
14 12 12 13 12 11 13 14 14 15 16 16 16 17 17 17 17 18 19 19 19 19 19 19 19 19 19 18 16 15 15 15 16 16 17 17 18 19 15 15 14 14 14 15
11 11 12 12 12 12 14 14 14 15 16 17 17 17 17 18 18 17 18 19 20 20 19 19 19 20 20 19 17 16 16 16 16 17 17 18 19 20 22 20 16 16 15 15
10 10 12 13 14 13 14 14 14 16 16 16 17 17 18 19 19 19 19 19 19 20 20 20 20 22 21 20 20 20 20 20 20 20 22 23 25 26 26 26 27 24 20 18
10 10 12 13 13 14 14 15 16 17 16 17 17 17 18 20 21 20 19 18 18 20 21 22 22 22 21 19 19 20 18 21 25 25 24 24 26 27 27 26 25 25 24 22
11 12 12 13 14 14 15 15 16 17 17 17 18 18 18 19 20 21 22 21 21 23 23 26 22 23 22 22 21 20 22 22 23 25 25 24 25 25 24 24 24 25 25 26
13 13 13 14 14 15 16 16 16 18 20 20 21 20 21 22 23 24 25 25 26 28 28 28 28 26 25 24 24 23 22 21 22 22 22 23 24 25 26 26 27 26 28 29
11 11 11 12 14 15 16 16 17 18 20 21 22 26 28 27 27 28 29 29 29 28 29 28 27 26 24 23 21 19 20 20 19 21 20 22 22 21 23 24 24 25 27 25
13 13 13 13 14 15 17 18 19 20 24 27 27 29 31 32 32 32 32 32 30 28 26 26 19 21 21 20 19 19 20 20 20 20 21 23 24 20 21 23 26 28 27 26
15 15 15 16 16 18 21 24 24 25 29 29 32 31 30 31 33 32 32 29 26 24 24 22 21 21 21 20 21 20 21 22 20 22 23 22 26 26 22 21 23 26 29 29
20 21 21 21 25 26 26 28 27 26 29 32 29 30 30 30 31 33 27 23 23 24 22 21 22 22 21 22 20 21 23 25 24 23 25 26 25 22 23 24 24 23 24 26
24 23 24 25 23 26 27 28 26 29 29 31 34 34 32 25 26 26 25 22 20 23 21 20 21 24 22 25 19 25 20 21 22 22 22 25 27 27 25 23 23 24 24 24
23 23 23 24 24 24 25 25 28 27 28 29 29 28 27 22 22 21 21 19 19 21 20 21 23 24 25 28 26 27 27 26 25 24 25 28 29 29 27 24 25 25 27 26
23 22 23 22 22 20 20 22 21 19 24 23 23 24 21 22 22 19 18 18 20 20 23 23 25 23 25 28 28 28 28 29 28 29 26 27 30 27 24 27 27 27 30 29
20 21 21 21 18 20 17 16 16 16 16 16 17 17 18 18 21 19 22 19 18 18 20 21 23 23 27 28 28 27 26 27 27 29 25 24 23 27 27 29 27 23 24 30
18 19 19 17 18 19 18 17 19 20 19 21 22 25 25 25 22 22 21 21 19 17 19 20 24 23 23 24 23 23 23 22 24 25 25 24 25 24 22 24 26 23 21 23
18 19 18 18 17 17 18 19 21 20 22 27 26 24 25 26 25 23 23 23 22 21 21 21 19 17 19 17 17 19 19 21 23 22 24 24 26 24 23 24 26 27 22 21

GFSNGP_con_lsi_117.txt.gz
Lid_Strength_Index
13 13 13 15 16 15 15 14 17 17 18 17 16 15 15 15 15 16 16 16 16 16 16 16 17 16 16 15 15 14 14 14 14 13 13 13 13 13 12 12 11 12 12 13
14 12 13 16 15 15 14 15 16 16 17 15 14 14 16 16 16 17 17 17 16 16 16 16 16 17 16 16 15 15 15 15 14 14 14 14 14 14 13 14 13 13 13 13
16 13 13 17 16 16 15 14 14 17 16 15 16 16 16 16 17 17 17 17 17 17 17 16 16 16 17 16 15 15 15 15 15 14 13 14 14 14 14 14 14 15 14 14
16 15 20 15 13 13 15 15 14 15 15 15 15 15 15 15 16 17 17 17 17 16 16 16 14 15 15 16 16 16 16 16 16 15 14 14 14 15 15 15 15 15 15 15
17 17 15 15 15 15 15 16 14 15 14 15 15 14 17 15 15 15 15 15 15 15 16 15 15 13 14 15 16 16 17 16 16 15 15 15 15 15 14 15 15 15 16 16
15 18 20 16 14 12 12 17 14 14 15 15 13 16 17 16 16 16 16 15 15 15 15 15 15 14 14 15 16 17 16 16 16 15 15 15 15 14 14 14 14 14 16 16
15 16 16 14 12 11 17 17 14 14 15 14 16 15 16 15 16 16 16 16 15 15 16 16 15 14 15 15 15 15 15 15 15 15 14 14 14 13 13 13 14 15 15 15
15 17 18 12 12 15 14 12 13 13 14 15 15 16 16 17 18 17 17 17 16 16 17 16 16 16 16 16 14 14 14 15 15 15 14 14 14 14 13 14 14 14 15 15
15 16 13 11 13 12 11 12 12 13 13 14 15 17 17 17 18 17 17 17 16 16 16 16 16 16 17 16 14 14 14 14 15 15 15 14 14 14 14 14 15 15 15 15
13 13 13 12 12 13 12 12 11 12 13 13 15 15 16 16 16 17 17 17 17 16 17 17 16 16 16 15 14 14 14 14 14 15 15 15 14 14 14 14 14 15 15 15
13 13 13 13 12 13 12 12 13 13 13 14 14 15 16 16 17 17 17 17 17 17 17 17 17 17 16 15 14 14 14 14 14 14 14 15 15 15 15 14 14 15 15 15
13 11 12 13 12 11 12 13 13 14 15 15 14 16 15 16 16 17 18 18 18 18 18 18 17 17 17 16 14 14 14 14 14 14 14 15 15 15 15 15 15 15 14 15
10 10 11 11 12 12 13 14 14 14 15 16 16 16 16 17 17 17 17 18 18 18 18 18 18 18 18 17 15 15 15 15 14 14 14 15 16 16 17 15 16 17 16 15
9 10 12 12 13 12 13 14 14 15 15 16 16 16 17 18 18 18 18 18 18 18 18 19 19 20 19 18 17 17 15 17 15 14 15 15 16 16 17 17 17 17 17 17
9 9 11 12 12 13 13 14 15 15 16 16 16 17 17 18 19 19 18 17 17 18 19 19 19 20 19 18 17 17 15 15 15 15 15 17 16 16 17 17 17 18 17 17
11 12 12 12 13 13 14 14 15 16 16 16 17 17 17 18 18 19 19 19 19 20 20 22 20 21 20 20 18 16 16 17 17 15 15 16 16 16 17 17 18 18 19 19
12 13 12 13 13 13 14 14 15 16 18 18 18 18 19 19 20 20 21 22 21 22 22 22 22 22 22 20 18 16 15 15 17 15 15 15 16 16 17 17 18 18 19 20
9 9 10 11 12 14 15 15 16 17 18 19 20 22 23 22 21 22 23 24 23 22 21 21 22 20 20 19 17 16 16 16 15 15 15 16 16 16 16 16 17 17 18 19
11 11 11 12 13 14 15 16 17 18 21 22 23 23 24 24 23 23 24 23 22 20 18 20 18 19 18 18 17 16 16 16 16 16 16 17 16 16 15 15 16 16 17 17
13 13 14 15 15 16 18 19 20 22 24 23 25 23 21 22 24 24 24 21 18 16 18 18 18 18 19 18 19 16 17 16 16 16 16 15 15 15 15 16 15 15 15 16
17 17 18 19 20 21 21 22 21 21 23 24 21 22 22 22 22 24 20 17 16 19 18 19 17 17 17 18 16 16 16 15 15 15 15 15 14 14 14 14 14 13 14 14
19 19 21 21 20 21 22 21 21 23 22 23 25 26 24 20 19 19 20 18 15 19 17 16 16 19 17 21 15 15 15 14 14 14 14 14 14 14 14 14 14 14 14 14
19 19 20 21 20 19 21 20 22 21 21 22 21 20 19 17 17 17 17 15 16 15 16 15 18 20 20 16 14 14 14 14 14 14 14 14 14 15 15 14 14 14 14 14
19 18 19 19 19 18 17 17 18 17 20 19 19 20 18 16 16 15 15 17 18 17 15 15 16 18 20 14 14 14 14 14 14 14 14 18 14 14 14 14 14 13 14 16
18 18 18 18 17 16 15 15 14 14 15 15 15 15 16 16 16 16 17 16 17 15 14 14 17 17 16 14 14 15 15 14 14 14 14 14 14 14 14 14 14 14 14 14
17 16 16 15 15 15 15 15 14 14 15 15 15 16 16 17 17 17 17 18 16 16 14 13 14 14 13 13 14 14 14 14 14 15 15 14 13 14 14 14 14 14 14 13
15 17 15 15 15 14 15 15 15 15 17 17 17 17 17 18 18 18 19 16 16 15 15 15 15 15 15 15 14 14 13 13 14 14 14 14 14 13 14 13 13 14 14 14

GFSNGP_con_lsi_120.txt.gz
Lid_Strength_Index
12 12 12 13 14 13 14 13 15 16 17 16 15 15 15 15 15 15 16 16 16 16 16 15 16 16 14 13 14 13 13 13 12 13 13 12 12 12 12 13 12 12 12 13
14 12 12 14 14 13 13 13 15 15 17 14 14 14 15 15 15 16 16 16 16 16 16 16 15 15 15 14 14 13 13 14 13 12 12 13 13 12 13 13 13 13 13 14
15 13 12 15 15 14 14 13 13 15 15 14 15 15 16 15 15 16 16 16 16 16 16 16 15 14 15 15 14 15 14 13 13 13 13 13 13 13 14 14 14 14 14 14
14 14 19 14 11 12 14 14 13 13 14 14 14 14 14 14 15 15 15 15 16 15 15 15 14 14 14 14 14 15 15 15 14 13 13 13 13 13 13 14 14 15 15 14
16 16 14 13 13 13 14 15 13 13 13 14 14 13 15 15 14 15 14 14 13 13 14 14 13 13 13 13 14 14 15 15 15 14 13 13 14 14 13 13 13 14 14 15
13 17 19 14 12 11 11 16 13 13 13 13 13 14 15 15 14 14 13 13 14 13 13 13 13 12 13 13 13 14 14 14 14 13 14 13 13 13 12 12 13 13 14 14
14 15 14 13 12 10 16 16 12 12 12 11 13 13 14 14 14 14 13 14 13 13 13 13 13 12 14 14 14 13 13 12 13 13 13 13 12 12 12 12 12 12 13 13
13 15 17 11 11 13 13 11 11 11 12 13 14 14 15 15 15 14 14 14 13 13 14 13 13 13 14 14 13 12 12 13 13 12 12 12 12 12 12 12 12 13 13 12
12 13 11 10 11 10 10 11 11 11 11 12 13 15 15 16 15 15 14 13 13 13 13 13 13 13 14 14 12 11 11 11 12 12 12 12 12 12 12 12 12 13 13 13
11 11 11 11 11 10 10 11 10 10 11 11 13 14 14 14 14 14 14 14 13 13 14 14 13 13 13 12 12 12 12 12 12 12 12 12 12 12 13 14 14 14 14 14
12 11 11 11 11 11 11 11 11 10 11 11 12 13 13 13 14 14 14 14 14 14 15 15 14 14 13 13 12 12 12 12 12 12 12 12 12 13 14 14 15 15 15 15
11 10 10 11 10 10 11 11 11 11 12 12 12 13 13 13 13 14 15 14 15 15 15 15 15 15 14 13 13 13 13 13 12 12 12 13 13 12 15 15 16 16 16 15
9 8 9 10 10 10 11 11 11 12 12 13 13 13 13 14 14 16 15 15 16 16 16 16 16 17 16 14 14 14 13 13 12 12 12 13 13 13 14 13 14 15 16 16
8 9 11 10 11 10 11 12 12 12 12 13 13 13 14 15 15 16 16 16 16 16 16 16 16 17 16 15 14 14 13 13 13 12 12 13 13 13 13 14 14 14 14 15
7 7 8 10 10 11 11 11 12 13 13 14 13 14 14 16 16 16 16 15 15 15 16 17 17 18 17 17 16 15 14 13 14 13 13 13 13 13 13 14 14 14 14 15
9 9 9 10 11 12 11 12 13 13 14 14 15 15 15 15 16 16 16 16 16 17 18 19 18 18 18 18 16 14 14 14 14 13 13 13 13 13 14 14 14 14 15 16
10 11 10 11 11 11 11 12 12 13 14 15 16 16 16 17 17 18 18 18 18 19 18 18 18 18 19 17 16 14 13 13 14 13 13 13 14 14 14 14 15 15 15 17
7 7 7 8 10 11 12 13 13 13 15 15 16 18 19 18 18 18 18 19 19 18 17 17 18 17 17 17 16 14 14 14 14 14 14 14 14 14 14 14 15 15 15 16
7 7 8 9 10 11 12 13 14 15 17 18 19 19 19 19 18 18 18 19 18 17 15 16 16 16 16 16 16 14 14 14 14 14 14 15 14 14 13 13 13 14 14 14
9 9 10 11 11 12 14 15 16 18 19 18 19 19 18 18 19 19 18 17 15 14 15 15 15 15 16 16 16 14 14 14 14 14 13 13 13 13 12 13 12 12 12 12
12 12 14 15 16 16 16 17 17 18 19 19 18 17 17 17 18 19 16 14 13 14 14 15 15 14 14 16 15 14 13 13 13 13 13 12 12 12 12 12 12 11 11 11
14 15 16 17 17 17 17 16 16 18 18 19 20 20 19 16 15 15 15 15 14 15 14 13 13 15 15 17 13 12 12 12 12 11 12 12 12 12 12 12 12 11 11 12
14 15 16 16 16 16 16 16 17 17 17 17 17 16 15 14 13 14 15 14 13 14 14 13 13 15 16 13 11 11 11 11 11 11 11 11 11 11 12 12 12 12 12 12
14 15 15 14 15 15 16 15 15 15 16 15 15 16 14 13 13 12 13 14 15 15 14 13 13 13 14 11 10 10 10 10 10 10 10 11 11 11 11 12 12 12 12 12
14 15 15 15 14 13 13 13 13 13 13 13 13 13 14 13 14 13 13 14 14 14 13 12 13 13 11 10 10 11 11 11 11 11 11 11 10 10 10 10 11 11 11 12
14 13 13 13 12 12 12 12 12 12 12 13 12 12 12 13 14 14 14 15 14 14 13 12 12 12 11 11 11 11 11 11 11 11 11 11 11 11 10 10 10 11 11 11
13 13 13 13 12 12 11 11 12 13 13 13 13 13 14 14 15 15 16 15 15 14 14 13 13 13 14 13 13 13 12 12 12 12 12 12 11 11 11 11 10 10 10 11

GFSNGP_con_lsi_123.txt.gz
Lid_Strength_Index
11 10 11 12 14 12 13 12 15 15 16 15 14 14 14 13 13 14 15 15 15 15 15 15 14 14 13 13 13 12 12 12 12 11 12 12 12 13 13 13 13 13 13 14
14 11 11 14 12 12 13 13 14 14 15 14 13 13 14 14 13 14 15 15 15 16 15 15 15 15 14 13 13 13 13 13 12 12 12 12 13 13 13 14 14 14 13 13
15 11 12 16 13 12 13 12 12 13 13 13 13 14 14 14 14 14 14 15 16 16 15 15 15 14 14 13 13 14 14 14 13 13 12 12 11 12 13 14 14 14 14 14
14 13 19 13 9 9 11 12 11 12 13 12 13 13 13 12 14 14 14 13 14 14 14 14 13 14 13 13 13 14 14 14 14 13 13 13 13 12 12 13 13 13 14 14
15 14 14 13 11 11 12 13 11 12 12 12 12 12 14 14 14 14 13 13 12 11 11 12 12 12 12 13 14 15 15 15 15 14 14 14 14 13 13 13 13 14 14 14
13 16 18 13 10 9 9 14 11 11 12 12 12 15 14 14 14 12 11 11 11 11 11 11 10 11 11 12 12 13 12 13 13 13 13 13 12 12 12 11 12 12 12 14
13 14 13 11 10 9 15 14 11 11 10 11 13 14 14 13 14 12 12 12 11 11 12 12 11 11 12 12 12 11 11 11 11 11 12 12 12 11 11 11 11 12 12 12
12 14 16 9 9 12 11 10 10 11 11 12 13 14 14 14 14 13 12 12 11 12 12 12 12 12 12 12 11 10 10 11 11 11 10 11 11 11 11 12 12 12 12 12
11 12 10 9 8 8 9 10 10 11 11 12 13 15 15 15 14 13 12 12 11 12 12 12 12 12 13 12 11 10 10 11 10 11 10 10 11 11 12 12 12 13 13 13
10 10 10 9 8 8 9 10 10 10 10 11 13 13 13 12 12 12 12 12 12 12 13 13 12 12 12 12 11 11 11 11 11 11 11 11 11 12 13 14 14 15 15 15
10 9 9 9 9 9 10 10 10 10 10 11 11 11 11 12 12 12 12 12 12 13 13 14 13 14 13 13 12 12 12 12 12 11 11 12 12 12 13 14 15 16 16 15
11 8 9 10 9 9 10 10 10 11 11 10 10 11 11 12 12 12 13 13 13 13 14 14 14 15 15 14 13 13 12 12 12 11 11 11 11 11 14 14 15 15 15 16
8 7 9 9 9 9 10 10 10 10 10 11 11 11 11 12 13 14 13 14 14 15 14 15 15 16 16 15 14 14 13 12 12 11 12 12 12 12 13 12 13 14 14 14
6 7 10 9 10 9 9 10 10 11 11 11 11 11 12 13 13 14 15 14 14 14 15 15 15 16 16 16 15 15 13 13 13 12 12 12 13 13 12 13 13 13 13 14
7 6 8 8 9 9 9 10 11 12 12 12 12 12 13 14 14 14 14 14 14 14 15 16 16 17 17 16 16 14 13 13 13 12 12 12 12 12 12 13 13 13 13 13
6 7 8 9 9 10 10 10 11 12 12 12 13 13 13 14 14 14 15 15 15 16 16 18 17 17 17 17 16 13 13 13 13 13 12 12 12 13 13 13 13 13 14 15
8 9 9 10 10 10 10 10 11 12 12 13 14 14 14 15 15 16 16 16 16 17 16 15 17 17 17 16 16 13 13 12 13 12 12 13 13 13 13 13 13 14 14 15
6 6 7 8 9 10 11 11 11 11 12 13 14 16 17 16 15 16 16 16 17 16 16 15 16 16 15 16 15 14 13 13 13 13 13 13 14 14 13 14 14 13 13 14
5 6 7 7 8 9 10 11 11 12 14 16 17 16 16 16 15 15 16 17 17 16 14 15 15 15 14 15 15 14 13 14 14 14 14 14 14 13 13 12 12 12 12 12
6 6 7 8 9 10 12 13 14 16 16 16 16 16 15 16 16 17 16 16 14 13 13 13 14 14 14 14 15 14 14 14 14 14 13 13 12 12 11 11 11 11 11 10
9 9 11 12 13 14 14 14 16 17 16 16 15 16 16 15 16 16 16 14 13 14 14 14 14 13 13 14 14 13 13 13 13 12 12 11 11 11 11 11 11 11 11 11
11 13 14 15 15 15 15 14 14 16 16 17 18 17 17 16 14 14 14 14 13 13 13 13 13 13 13 16 14 13 12 11 11 10 11 10 11 11 11 11 11 11 11 11
12 13 14 14 14 14 14 14 15 15 16 16 16 15 14 13 13 14 14 13 13 13 14 13 13 13 14 14 13 12 11 10 10 10 10 10 10 10 11 11 11 11 11 11
12 12 13 12 13 14 14 14 14 14 14 13 14 15 14 13 13 12 12 13 13 15 14 13 13 14 14 13 12 11 10 10 10 10 10 10 10 9 9 9 10 10 10 11
12 12 12 13 13 12 12 12 12 12 13 12 12 13 13 12 13 13 13 13 14 14 14 14 14 14 13 12 11 11 11 11 10 10 11 10 10 11 10 10 9 9 10 10
12 12 11 11 10 10 10 11 11 11 11 12 11 12 12 12 13 14 13 14 14 15 15 14 14 14 13 13 13 13 12 12 12 12 12 12 11 11 11 10 10 9 9 9
11 11 11 11 10 10 10 11 11 12 12 12 13 12 13 14 14 15 15 15 15 16 15 15 15 14 14 14 14 14 14 13 14 14 14 13 13 12 12 11 11 10 9 9

GFSNGP_con_lsi_126.txt.gz
Lid_Strength_Index
11 11 11 11 12 11 12 12 16 14 15 15 15 14 14 13 13 14 14 14 15 15 15 15 14 14 14 14 14 13 13 13 13 14 13 14 14 14 14 14 14 14 14 14
14 11 11 13 12 12 11 12 13 14 15 13 13 13 14 14 13 14 14 15 15 15 14 14 14 14 14 14 14 14 13 13 13 13 13 13 14 14 14 14 15 14 15 15
15 11 12 16 14 12 11 10 11 14 13 12 13 14 15 14 13 14 14 13 15 15 14 14 13 14 14 14 13 14 14 14 13 13 13 13 13 13 14 15 15 15 15 15
15 14 20 13 9 9 10 10 10 12 12 12 13 14 14 14 14 14 14 13 12 12 13 13 12 12 13 13 13 14 15 14 14 14 14 13 13 13 13 13 14 14 14 14
16 15 14 12 10 10 11 12 10 11 11 12 12 13 15 14 13 13 13 12 12 12 12 11 12 11 11 12 13 14 14 15 14 14 14 14 14 14 13 14 13 14 14 15
14 16 17 13 9 8 8 15 9 10 11 12 12 15 16 14 14 12 12 12 12 11 12 12 12 11 12 12 12 12 12 13 13 13 13 14 13 13 13 13 13 12 13 13
14 15 13 11 9 8 15 14 9 9 9 10 13 14 14 13 13 12 12 12 11 12 13 13 12 12 13 13 13 12 11 12 12 12 13 13 13 13 14 13 13 14 13 13
13 15 17 9 10 12 9 8 8 9 11 13 13 14 14 14 14 12 12 12 12 13 13 13 13 13 13 13 12 11 11 11 12 12 11 12 13 14 14 14 15 15 15 15
12 13 10 9 8 7 7 8 9 10 11 12 13 14 14 15 13 12 12 12 12 13 13 13 13 13 14 13 12 11 12 12 12 12 12 12 13 14 16 16 16 17 17 17
11 11 10 9 7 7 7 8 8 9 10 12 14 14 14 13 12 13 13 13 13 13 14 14 14 14 14 13 13 12 13 13 13 13 13 13 13 14 16 17 17 18 18 18
11 11 10 8 8 8 8 8 9 9 10 11 12 12 12 12 12 12 12 13 13 14 14 15 15 16 15 15 14 14 13 13 13 13 13 14 14 15 15 17 17 18 19 19
12 9 8 9 8 8 9 10 10 10 10 10 11 12 12 13 12 13 13 13 14 14 15 15 16 17 17 16 15 15 14 14 14 13 13 13 14 14 14 15 14 14 14 16
8 7 8 9 8 9 10 10 10 10 10 11 10 11 12 13 13 13 13 14 14 15 15 16 17 18 18 17 16 15 15 13 14 13 13 14 14 14 15 13 13 14 14 14
7 8 10 9 10 9 9 10 9 10 10 11 11 12 13 14 14 14 15 15 14 15 16 17 17 18 18 17 16 17 14 14 14 14 14 14 14 14 14 15 15 15 13 15
7 6 7 7 8 9 9 10 11 12 12 12 12 13 13 14 14 15 14 14 13 15 16 17 17 18 17 17 17 16 14 14 15 14 14 14 14 14 15 15 15 15 15 15
6 7 7 9 9 10 10 10 11 12 12 12 13 13 13 13 14 15 16 15 16 17 17 19 17 18 18 17 17 15 14 15 16 15 15 15 15 15 15 15 15 15 15 16
8 9 9 9 10 10 10 10 11 11 12 14 14 14 14 15 15 16 17 17 17 18 18 17 18 20 19 19 18 16 15 14 17 15 15 15 15 16 15 15 15 15 15 18
6 6 6 8 9 10 10 10 11 12 13 13 14 16 17 17 17 17 18 17 18 18 17 16 18 18 18 17 17 16 15 15 15 15 15 15 15 15 15 15 15 15 14 13
6 6 6 7 8 9 10 11 11 12 15 16 17 17 17 17 16 16 17 19 19 17 15 16 14 16 15 15 16 16 16 15 15 15 15 16 15 15 15 14 13 13 13 12
6 6 7 7 8 9 12 14 14 16 16 16 17 17 17 18 18 18 18 17 15 14 14 14 14 15 14 14 17 15 15 15 15 15 15 15 15 14 13 14 13 13 12 12
9 10 12 13 13 14 14 15 16 17 17 17 17 17 17 16 17 18 16 15 14 15 14 15 14 14 14 15 16 15 15 15 14 14 14 14 13 12 12 12 12 12 12 12
11 13 14 14 15 15 15 15 15 17 17 18 20 19 19 16 16 16 16 15 13 16 15 14 14 15 15 18 15 15 15 14 14 13 13 12 12 12 12 12 12 12 13 13
12 13 14 15 15 14 14 14 16 16 17 18 18 16 15 14 13 14 15 13 13 16 15 15 15 16 16 15 15 15 14 14 13 12 12 12 12 12 12 12 12 11 12 13
13 13 13 13 13 14 15 15 15 15 15 15 15 16 14 14 13 12 13 15 16 17 16 15 16 17 19 16 15 16 16 15 14 13 13 13 13 12 12 12 12 12 11 11
12 13 12 13 13 13 13 13 13 13 13 12 12 13 13 13 14 14 14 14 15 16 16 16 18 17 16 16 16 17 16 15 15 15 15 15 15 15 14 13 13 13 12 11
12 12 12 11 11 11 11 12 12 11 12 12 12 12 12 12 13 14 14 16 16 17 16 17 17 17 17 17 18 17 16 16 16 16 17 17 16 16 15 15 15 15 14 13
10 11 11 11 10 10 10 11 10 11 12 12 12 12 13 13 14 15 17 16 17 17 18 18 18 18 19 19 17 17 17 17 18 18 18 17 16 17 17 17 17 16 15 14

GFSNGP_con_lsi_129.txt.gz
Lid_Strength_Index
12 11 11 12 13 12 13 13 15 15 16 15 14 15 14 13 14 14 14 14 15 15 15 14 14 14 14 14 14 13 13 13 13 13 13 13 14 14 14 14 15 16 16 16
15 11 12 13 13 13 12 12 13 13 16 13 13 13 14 15 14 15 14 15 14 14 14 14 14 14 14 14 15 14 15 14 14 13 13 14 14 15 15 15 15 15 16 16
16 12 13 16 13 13 12 11 11 15 13 13 13 15 15 15 15 15 14 14 15 14 13 14 14 13 14 14 14 15 15 14 14 13 14 14 14 14 15 15 15 16 16 17
16 14 20 13 9 9 10 10 11 12 13 13 14 14 14 14 15 15 14 14 14 15 14 13 13 12 12 13 13 14 15 14 14 14 15 14 14 14 14 14 15 16 17 17
17 17 14 12 10 10 11 12 10 12 13 13 14 15 15 14 14 14 14 13 13 13 14 13 13 13 13 13 13 13 14 14 14 15 16 16 16 15 15 14 14 15 16 16
15 18 20 13 11 9 9 15 9 10 12 13 13 16 17 14 14 14 13 13 14 14 14 14 14 13 14 14 14 14 14 14 14 13 14 16 16 15 14 15 15 15 14 16
15 17 14 11 10 9 15 15 8 8 10 11 14 15 14 14 14 13 13 13 13 14 15 15 14 14 15 14 14 13 13 13 13 14 14 15 16 16 16 15 16 16 16 16
15 16 18 10 10 13 11 10 10 10 11 13 13 14 14 14 15 14 14 14 14 15 15 15 15 15 16 16 13 12 13 13 13 13 13 14 16 16 16 17 18 18 18 18
13 14 11 9 9 8 8 11 11 10 10 11 13 14 14 15 15 14 14 15 15 16 16 16 16 16 17 16 14 13 13 14 14 14 14 14 15 16 17 18 19 19 19 20
13 12 11 9 8 8 8 9 9 9 10 11 13 13 14 13 13 15 15 16 16 16 17 17 17 17 17 16 15 14 15 15 14 15 15 15 15 16 17 19 19 18 19 22
12 11 10 9 9 8 8 7 8 9 10 11 11 12 12 13 14 14 15 15 15 16 17 17 17 18 17 17 16 16 15 15 15 15 15 16 16 17 17 18 17 19 22 22
14 11 11 10 9 8 9 10 9 9 10 10 10 12 12 14 14 14 15 15 15 16 17 18 18 19 18 18 17 17 16 16 16 16 16 16 16 16 14 16 14 14 14 19
10 9 10 9 8 9 10 10 9 10 10 11 11 12 13 14 14 14 15 15 16 16 17 17 18 19 19 18 17 17 17 16 16 16 15 15 16 16 18 16 13 13 14 14
9 9 10 10 10 8 9 9 9 10 11 12 13 13 14 15 15 15 15 15 15 16 17 17 18 21 21 21 20 20 19 17 18 18 19 19 19 19 21 22 23 21 17 16
9 7 9 8 8 9 10 10 11 12 13 13 13 14 14 15 16 16 15 15 15 16 18 19 21 22 20 18 18 19 17 19 22 21 21 22 20 21 23 23 23 24 23 21
7 8 9 9 10 11 11 11 12 13 13 13 13 14 14 15 16 16 16 16 17 18 18 22 20 22 20 21 21 20 19 19 20 20 20 20 21 22 20 21 20 22 22 21
9 10 10 11 11 12 12 12 12 13 14 15 16 16 16 17 17 19 20 19 21 22 22 23 23 24 24 24 24 23 21 19 20 18 20 20 22 21 21 21 22 22 22 24
7 9 9 10 11 11 12 12 13 13 15 15 16 17 18 18 19 21 21 22 23 22 23 23 23 22 23 23 22 19 19 18 18 19 19 21 21 19 21 22 20 21 21 19
7 8 9 9 10 11 12 12 13 14 16 18 19 21 21 23 22 22 23 24 24 21 20 22 17 17 17 19 18 18 19 20 19 18 19 20 22 20 22 24 22 23 21 19
8 8 9 10 11 12 15 15 16 17 18 19 19 21 22 23 23 23 24 21 21 18 18 17 16 16 16 17 19 18 18 21 18 18 20 20 24 25 23 21 20 21 23 22
11 12 13 14 17 17 16 17 17 18 20 20 20 21 21 22 23 24 22 18 19 20 18 18 17 17 16 18 19 21 21 22 22 20 20 20 18 20 20 19 17 16 19 21
15 15 16 16 16 18 19 19 19 20 20 22 24 25 24 22 23 22 21 17 17 21 18 17 17 19 19 22 18 22 19 18 18 17 17 17 18 18 16 16 16 16 16 15
16 16 17 17 17 18 18 19 21 20 21 22 22 22 20 17 17 18 18 15 16 19 17 18 21 23 23 23 24 23 24 23 20 19 19 18 17 17 17 17 17 16 16 15
17 16 16 15 15 16 18 19 16 17 19 18 20 20 17 19 18 15 15 18 22 22 22 19 20 22 25 25 24 25 26 27 21 22 19 20 20 20 20 18 18 18 18 17
15 15 15 15 15 15 15 15 14 14 14 14 14 14 15 15 20 20 20 20 19 21 22 24 24 25 25 25 28 29 27 27 26 22 22 23 24 23 21 20 20 20 19 18
13 14 14 13 14 13 14 14 14 14 14 16 15 14 16 16 17 18 20 21 20 22 23 26 27 27 29 28 29 28 28 25 23 24 27 25 22 22 22 23 22 21 18 17
12 13 13 13 12 12 13 14 14 15 15 14 16 16 17 19 20 20 23 24 25 26 29 30 28 26 27 28 27 28 28 26 26 26 29 23 23 28 25 23 22 19 18 20